GEFSSE_con_probscp_048.txt.gz
Probability
6 9 10 6 2 2 1 0 0 0 0 0 0 0 1 2 2 3 3 1 0 0 0 0 0 0 0 0 0 0 0 0 0 0 0 0 0 0 0 0 0 0 0
10 10 9 5 1 1 0 0 0 0 0 0 0 0 0 1 1 1 1 0 0 0 0 0 0 0 0 0 0 0 0 0 0 0 0 0 0 0 0 0 0 0 0
12 9 6 3 1 0 0 0 0 0 0 0 0 0 0 0 0 0 0 0 0 0 0 0 0 0 0 0 0 0 0 0 0 0 0 0 0 0 0 0 0 0 0
6 4 3 2 1 0 0 0 0 0 0 0 0 0 0 0 0 0 0 0 0 0 0 0 0 0 0 0 0 0 0 0 0 0 0 0 0 0 0 0 0 0 0
1 1 2 3 2 1 0 0 0 0 0 0 0 0 0 0 0 0 0 0 0 0 0 0 0 0 0 0 0 0 0 0 0 0 0 1 1 1 0 0 0 0 0
0 0 1 2 2 1 0 0 0 0 0 0 0 0 0 0 0 0 0 0 0 0 0 0 0 0 0 0 0 0 0 0 0 0 0 1 3 2 0 0 0 0 0
1 1 0 1 1 1 0 0 0 0 0 0 0 0 0 0 0 0 0 0 0 0 0 0 0 0 0 0 0 0 0 0 0 0 2 5 7 4 1 0 0 0 0
3 2 1 0 0 0 0 0 0 0 0 0 0 0 0 0 0 0 0 0 0 0 0 0 0 0 0 0 0 0 0 0 0 0 3 10 12 7 3 1 0 0 0
7 5 2 0 0 0 0 0 0 0 0 0 0 0 0 0 0 0 0 0 0 0 0 0 0 0 0 0 0 0 0 0 0 0 5 14 18 15 9 5 2 0 0
11 8 3 0 0 0 0 0 0 0 0 0 0 0 0 0 0 0 0 0 0 0 0 0 0 0 0 0 0 0 0 0 0 1 7 17 25 23 16 9 3 0 0
11 9 4 0 0 0 0 0 0 0 0 0 0 0 0 0 0 0 3 5 3 1 0 0 0 0 0 0 0 0 0 0 1 5 13 23 28 24 16 9 3 0 0
11 11 6 2 1 0 1 1 1 0 0 0 0 1 0 0 1 5 12 16 11 4 1 0 0 0 0 0 0 0 0 0 2 8 20 28 27 20 13 8 3 1 0
12 13 12 9 5 3 6 6 2 1 2 2 3 4 3 2 7 18 27 27 19 10 3 1 0 0 0 0 0 0 0 0 3 9 19 26 25 18 13 8 4 1 1
11 12 18 23 20 18 24 20 9 7 9 9 12 15 12 12 20 35 44 40 31 23 15 9 6 5 4 3 1 0 0 1 3 6 10 15 16 15 11 7 4 2 3
16 16 24 41 47 48 52 44 28 26 30 34 39 38 36 37 46 60 67 63 53 48 41 30 25 21 16 11 5 2 2 2 3 4 4 5 8 10 11 8 5 5 7
38 35 43 61 73 76 75 68 57 55 61 67 70 68 65 68 77 86 90 85 76 74 70 57 47 41 32 21 12 7 5 4 4 4 3 2 4 7 9 9 8 8 10
67 65 68 77 86 90 88 85 80 79 83 88 88 85 82 87 94 98 98 94 88 85 82 71 58 47 37 26 18 13 9 6 5 4 3 2 2 3 4 5 6 7 8
85 86 85 86 91 96 97 95 92 91 93 93 90 88 88 90 94 97 96 93 88 82 73 62 50 39 30 22 16 12 8 4 3 2 2 1 0 0 0 1 2 3 4
94 94 93 92 95 99 100 99 98 98 98 96 91 89 87 85 87 89 88 85 78 68 56 43 33 25 19 13 8 6 3 2 1 1 0 0 0 0 0 0 0 0 1
97 98 98 98 98 100 100 100 100 100 98 95 89 83 80 77 75 74 72 69 63 53 42 29 19 14 9 5 2 1 1 0 0 0 0 0 0 0 0 0 0 0 0
98 98 99 100 100 100 100 100 100 99 96 91 83 75 68 63 58 55 53 51 47 39 29 18 10 6 3 1 0 0 0 0 0 0 0 0 0 0 0 0 0 0 0
99 99 100 100 100 100 100 99 98 96 92 84 76 67 56 47 42 39 37 35 32 26 16 8 4 2 0 0 0 0 0 0 0 0 0 0 0 0 0 0 0 0 0
98 99 99 99 99 99 98 97 95 91 83 74 66 55 42 32 28 27 24 20 17 13 6 2 1 0 0 0 0 0 0 0 0 0 0 0 0 0 0 0 0 0 0
94 95 96 96 95 94 93 92 91 84 72 61 51 39 26 18 15 14 11 9 7 4 2 0 0 0 0 0 0 0 0 0 0 0 0 0 0 0 0 0 0 0 0
84 85 86 85 84 84 83 81 78 68 54 42 32 22 13 8 6 4 3 3 2 1 0 0 0 0 0 0 0 0 0 0 0 0 0 0 0 0 0 0 0 0 0
73 75 75 74 73 73 73 70 65 53 38 27 20 13 7 4 2 1 1 1 1 0 0 0 0 0 0 0 0 0 0 0 0 0 0 0 0 0 0 0 0 0 0

GEFSSE_con_probscp_054.txt.gz
Probability
0 2 8 21 35 43 41 30 16 8 7 7 5 4 4 6 9 14 16 16 12 6 1 0 0 0 0 0 0 0 0 0 0 0 0 0 0 0 0 0 0 0 0
2 3 10 23 35 38 34 24 13 7 7 7 5 3 3 5 9 11 11 11 7 3 0 0 0 0 0 0 0 0 0 0 0 0 0 0 0 0 0 0 0 0 0
6 6 10 21 29 28 21 14 7 5 5 4 3 2 2 3 5 6 5 3 2 0 0 0 0 0 0 0 0 0 0 0 0 0 0 0 0 0 0 0 0 0 0
9 7 8 15 21 17 10 5 3 2 1 1 1 1 0 1 1 1 1 0 0 0 0 0 0 0 0 0 0 0 1 1 0 0 0 0 0 0 1 1 1 0 0
7 6 6 11 14 10 4 1 0 0 0 0 0 0 0 0 0 0 0 0 0 0 0 0 0 0 0 0 0 1 2 1 0 0 0 0 0 0 1 2 2 0 0
5 4 5 9 10 7 3 1 0 0 0 0 0 0 0 0 0 0 0 0 0 0 0 0 0 0 0 0 0 1 1 1 0 0 0 0 0 1 2 2 1 0 0
3 3 3 5 5 4 2 1 0 0 0 0 0 0 0 0 0 0 0 0 0 0 0 0 0 0 0 0 0 0 0 0 0 0 0 0 1 2 3 2 1 0 0
2 1 1 1 1 1 1 1 0 0 0 0 0 0 0 0 0 0 0 0 0 0 0 0 0 0 0 0 0 0 0 0 0 0 0 0 1 2 2 2 2 1 0
1 0 0 0 0 0 0 0 0 0 0 0 0 0 0 0 0 0 0 0 0 0 0 0 0 0 0 0 0 0 0 0 0 0 0 0 1 1 1 1 1 1 1
0 0 0 0 0 0 0 0 0 0 0 0 0 0 0 0 0 0 0 0 0 0 0 0 0 0 0 0 1 1 0 0 0 0 0 1 2 2 1 1 1 1 0
0 0 0 0 0 0 0 0 0 0 0 0 0 0 0 0 0 0 0 0 0 0 0 0 0 0 0 0 1 1 0 0 0 0 1 2 4 4 3 2 1 0 0
0 0 0 0 0 0 0 0 0 0 0 0 0 0 0 0 0 0 0 0 0 0 0 0 0 0 0 0 1 1 0 0 0 0 2 4 5 6 5 3 2 0 0
0 0 0 0 0 0 0 0 0 0 0 0 0 0 0 0 0 0 0 0 0 0 0 0 0 0 0 0 0 0 0 0 1 1 5 9 10 9 8 6 4 2 0
1 0 0 0 0 0 0 0 0 0 0 0 0 0 0 0 0 0 0 0 0 0 0 0 0 0 0 0 0 0 1 1 1 3 8 14 15 14 13 11 9 5 4
4 2 1 0 0 0 0 0 0 0 0 0 0 0 0 0 0 0 0 0 0 0 0 0 0 0 0 0 0 0 0 0 1 2 7 15 20 22 21 18 13 9 8
11 7 3 1 1 1 1 0 0 0 0 0 0 0 0 0 0 0 0 0 0 0 0 0 0 0 0 0 0 0 0 0 0 0 4 11 18 23 23 19 15 11 9
20 14 8 5 3 3 3 1 1 1 0 0 0 0 0 0 0 0 0 0 0 0 0 0 0 0 0 0 0 0 0 0 0 0 1 5 9 12 14 13 11 9 7
26 23 21 18 14 14 14 11 8 7 6 4 4 5 5 5 5 3 2 1 0 0 0 0 0 0 0 0 0 0 0 0 0 0 0 1 1 2 3 5 5 5 4
30 32 38 42 40 41 42 35 30 27 23 20 19 19 19 18 16 11 5 2 0 0 0 0 0 0 0 0 0 0 0 0 0 0 0 0 0 0 0 1 1 1 1
35 40 51 64 70 72 72 66 58 52 44 37 34 32 31 28 24 17 10 4 1 0 0 0 0 0 0 0 0 0 0 0 0 0 0 0 0 0 0 0 0 0 0
45 49 59 74 84 88 88 83 74 64 52 42 37 35 31 27 23 18 12 6 2 0 0 0 0 0 0 0 0 0 0 0 0 0 0 0 0 0 0 0 0 0 0
58 58 65 76 85 88 88 83 74 62 49 38 31 27 23 20 17 15 11 5 1 0 0 0 0 0 0 0 0 0 0 0 0 0 0 0 0 0 0 0 0 0 0
65 66 70 78 82 84 83 79 70 58 45 34 24 17 14 13 12 10 6 3 1 0 0 0 0 0 0 0 0 0 0 0 0 0 0 0 0 0 0 0 0 0 0
65 68 73 77 79 80 78 74 66 55 41 28 18 11 8 7 6 4 2 1 0 0 0 0 0 0 0 0 0 0 0 0 0 0 0 0 0 0 0 0 0 0 0
53 57 63 68 68 67 65 59 52 42 29 19 12 7 4 2 1 1 0 0 0 0 0 0 0 0 0 0 0 0 0 0 0 0 0 0 0 0 0 0 0 0 0
39 44 52 56 56 54 50 45 37 27 18 12 8 5 2 0 0 0 0 0 0 0 0 0 0 0 0 0 0 0 0 0 0 0 0 0 0 0 0 0 0 0 0

GEFSSE_con_probscp_060.txt.gz
Probability
2 2 4 3 3 13 27 32 26 18 11 6 4 4 2 1 0 0 0 0 0 0 0 0 0 0 0 0 0 0 0 0 0 0 0 0 0 0 0 0 0 0 0
5 5 5 4 6 15 26 30 25 17 9 6 7 7 4 2 1 1 0 0 0 0 0 0 0 0 0 0 0 0 0 0 0 0 0 0 0 0 0 0 0 0 0
10 8 6 5 10 17 23 24 18 11 6 5 7 6 4 3 2 1 0 0 0 0 0 0 0 0 0 0 0 0 0 0 0 0 0 0 0 0 0 0 0 0 0
11 8 5 6 11 16 17 15 11 6 3 3 3 2 2 2 2 1 0 0 0 0 0 0 0 0 0 0 0 0 0 0 0 0 0 0 0 0 0 0 0 0 0
8 5 3 4 8 11 11 10 8 4 2 1 1 0 0 1 1 0 0 0 0 0 0 0 0 0 0 0 0 0 0 0 0 0 0 0 0 0 0 0 0 0 0
4 2 1 2 4 5 6 6 5 3 2 0 0 0 0 0 0 0 0 0 0 0 0 0 0 0 0 0 0 0 0 0 0 0 0 0 0 0 0 0 0 0 0
3 1 0 1 1 2 4 4 4 2 1 0 0 0 0 0 0 0 0 0 0 0 0 0 0 0 0 0 0 0 0 0 0 0 0 0 0 0 0 0 0 0 0
2 1 0 0 1 2 3 4 3 1 0 0 0 0 0 0 0 0 0 0 0 0 0 0 0 0 0 0 0 0 0 0 0 0 0 0 0 0 0 0 0 0 0
1 1 1 0 0 1 2 2 1 0 0 0 0 0 0 0 0 0 0 0 0 0 0 0 0 0 0 0 0 0 0 0 0 0 0 0 0 0 0 0 0 0 0
1 1 1 0 0 0 1 1 0 0 0 0 0 0 0 0 0 0 0 0 0 0 0 0 0 0 0 0 0 0 0 0 0 0 0 0 0 0 0 0 0 0 0
0 0 0 0 0 0 0 0 0 0 0 0 0 0 0 0 0 0 0 0 0 0 0 0 0 0 0 0 0 0 0 0 0 0 0 0 0 0 0 0 0 0 0
0 0 0 0 0 0 0 0 0 0 0 0 0 0 0 0 0 0 0 0 0 0 0 0 0 0 0 0 0 0 0 0 0 0 0 0 0 1 2 1 0 0 0
0 0 0 0 0 0 0 0 0 0 0 0 0 0 0 0 0 0 0 0 0 0 0 0 0 0 0 0 0 0 0 0 0 0 1 2 3 3 2 1 0 0 0
0 0 1 1 0 0 1 1 0 0 0 0 0 0 0 0 0 0 0 0 0 0 0 0 0 0 0 0 0 0 0 0 0 1 3 6 8 6 3 2 1 1 1
0 0 1 1 1 1 2 2 1 0 0 0 0 0 0 0 0 0 0 0 0 0 0 0 0 0 0 0 0 0 0 0 0 1 4 10 15 12 8 6 5 4 4
0 0 1 1 1 2 3 3 1 0 0 0 0 0 0 0 0 0 0 0 0 0 0 0 0 0 0 0 0 0 0 0 0 1 2 8 14 16 13 10 7 7 7
1 1 1 1 3 5 7 5 2 0 0 0 0 0 0 0 0 0 0 0 0 0 0 0 0 0 0 0 0 0 0 0 0 0 0 3 7 10 11 11 10 9 8
4 4 4 6 7 8 9 8 4 2 1 0 0 0 0 0 0 0 0 0 0 0 0 0 0 0 0 0 0 0 0 0 0 0 0 0 1 3 6 10 11 10 7
11 9 9 12 12 10 9 9 8 5 2 0 0 1 1 1 0 0 0 0 0 0 0 0 0 0 0 0 0 0 0 0 0 0 0 0 0 1 3 6 7 6 4
21 19 18 19 19 16 16 17 16 11 5 2 1 2 3 3 2 1 1 1 0 0 0 0 0 0 0 0 0 0 0 0 0 0 0 0 0 0 1 1 2 2 1
30 29 28 28 31 32 32 33 30 22 14 8 4 3 5 6 7 6 5 3 2 1 1 0 0 0 0 0 0 0 0 0 0 0 0 0 0 0 0 0 0 0 0
33 32 31 34 41 47 49 48 43 33 23 14 8 6 7 9 10 9 7 5 3 2 1 0 0 0 0 0 0 0 0 0 0 0 0 0 0 0 0 0 0 0 0
27 26 29 35 44 52 55 54 49 40 29 19 13 10 9 8 7 7 6 4 2 1 1 0 0 0 0 0 0 0 0 0 0 0 0 0 0 0 0 0 0 0 0
19 20 25 32 40 47 50 50 49 43 32 20 14 10 7 5 4 4 4 2 0 0 0 0 0 0 0 0 0 0 0 0 0 0 0 0 0 0 0 0 0 0 0
11 13 18 24 30 33 35 37 37 33 23 15 10 6 3 2 3 3 3 1 0 0 0 0 0 0 0 0 0 0 0 0 0 0 0 0 0 0 0 0 0 0 0
7 9 13 18 21 22 23 25 24 18 12 9 7 4 2 1 1 2 1 0 0 0 0 0 0 0 0 0 0 0 0 0 0 0 0 0 0 0 0 0 0 0 0

GEFSSE_con_probscp_066.txt.gz
Probability
2 3 4 2 1 1 4 6 6 4 2 1 0 0 0 0 0 0 0 0 0 0 0 0 0 0 0 0 0 0 0 0 0 0 0 0 0 0 0 0 0 0 0
7 7 7 6 5 5 9 12 14 13 10 5 3 2 1 0 0 0 0 0 0 0 0 0 0 0 0 0 0 0 0 0 0 0 0 0 0 0 0 0 0 0 0
15 13 10 10 11 13 18 26 31 32 26 20 13 8 4 1 1 0 0 0 0 0 0 0 0 0 0 0 0 0 0 0 0 0 0 0 0 0 0 0 0 0 0
18 15 13 14 16 18 27 40 49 50 46 39 28 17 8 4 2 1 0 0 0 0 0 0 0 0 0 0 0 0 0 0 0 0 0 0 0 0 0 0 0 0 0
15 14 15 18 18 20 31 46 57 60 57 52 41 26 14 7 4 2 1 1 0 0 0 0 0 0 0 0 0 0 0 0 0 0 0 0 0 0 0 0 0 0 0
10 10 13 18 18 20 31 46 58 62 61 56 46 30 17 9 5 3 2 1 0 0 0 0 0 0 0 0 0 0 0 0 0 0 0 0 0 0 0 0 0 0 0
7 6 8 12 15 20 31 45 56 60 60 55 43 28 17 10 7 5 3 1 0 0 0 0 0 0 0 0 0 0 0 0 0 0 0 0 0 0 0 0 0 0 0
6 5 4 5 8 16 29 41 49 54 54 47 34 22 14 9 7 6 3 1 0 0 0 0 0 0 0 0 0 0 0 0 0 0 0 0 1 2 1 0 0 0 0
4 4 2 1 3 9 19 29 35 39 41 35 24 15 10 7 6 4 2 1 0 0 0 0 0 0 0 0 0 0 0 0 0 0 0 1 2 3 2 1 1 0 0
3 2 0 0 1 3 7 14 20 23 24 21 15 10 6 4 3 2 1 0 0 0 0 0 0 0 0 0 0 0 0 0 0 0 1 2 3 3 3 3 2 1 0
4 2 0 0 0 0 1 4 8 11 11 9 7 4 2 1 1 1 0 0 0 0 0 0 0 0 0 0 0 0 0 0 0 0 1 3 3 3 3 3 2 1 0
5 2 0 1 2 2 1 1 2 3 4 3 1 1 0 0 0 0 0 0 0 0 0 0 0 0 0 0 0 0 0 0 0 0 2 5 4 1 1 2 2 1 1
4 2 0 1 3 4 4 3 2 2 2 1 0 0 0 1 1 0 0 0 0 0 0 0 0 0 0 0 0 0 0 0 0 0 2 4 3 1 0 0 1 1 1
3 2 0 1 3 5 6 5 4 4 4 3 2 2 1 2 2 2 2 1 0 0 0 0 0 0 0 0 0 0 0 0 0 0 3 4 4 3 2 1 0 0 0
2 1 1 1 2 4 6 6 5 4 4 4 4 3 3 3 3 3 4 4 2 1 2 1 1 1 1 0 0 0 0 0 0 1 3 6 7 7 7 5 3 1 1
1 1 1 2 2 2 3 4 4 3 3 4 5 5 6 6 7 7 9 10 9 8 10 8 6 5 4 1 0 0 0 0 0 0 2 5 8 10 10 9 5 3 1
1 2 2 2 2 2 2 3 3 2 3 6 9 12 13 13 15 17 17 20 23 26 29 26 21 17 13 7 3 2 1 1 1 1 1 2 5 7 9 11 9 5 2
5 6 7 5 5 7 8 8 8 8 11 17 21 22 21 21 26 32 34 37 44 49 51 47 41 35 28 19 12 7 6 6 5 3 1 2 3 3 7 12 14 9 5
13 14 14 13 14 16 18 22 25 26 28 33 36 35 35 36 41 49 53 54 57 61 60 56 52 48 39 29 18 13 11 10 9 7 5 4 3 3 6 10 12 9 7
24 23 21 22 27 32 37 42 45 45 45 48 50 51 52 54 56 60 62 59 57 56 52 49 49 45 39 30 19 13 11 10 9 9 9 8 6 4 4 6 6 6 6
35 32 30 31 39 48 57 62 63 59 56 56 57 58 61 60 59 58 57 53 48 44 39 37 37 33 28 23 18 14 11 8 7 7 7 7 5 3 2 3 3 3 3
40 39 39 42 48 57 65 72 74 68 61 57 55 56 56 54 51 46 43 40 36 32 28 24 22 19 16 14 14 15 13 9 5 3 2 2 2 1 1 1 1 1 1
43 44 48 52 57 60 65 70 73 69 61 54 49 44 42 39 35 30 26 24 23 22 19 15 12 10 8 7 8 10 10 9 5 1 0 0 0 0 0 0 0 0 0
44 46 51 56 59 61 65 68 69 64 57 47 37 26 21 20 17 14 12 12 12 12 11 9 7 7 6 5 4 3 3 3 2 1 0 0 0 0 0 0 0 0 0
35 39 43 46 48 51 57 61 60 55 45 33 21 12 9 8 8 6 5 5 5 5 5 5 5 5 5 4 2 0 0 0 0 0 0 0 0 0 0 0 0 0 0
24 27 31 34 35 38 45 50 51 44 34 22 13 8 6 5 6 5 4 3 3 3 3 3 4 4 3 2 1 0 0 0 0 0 0 0 0 0 0 0 0 0 0

GEFSSE_con_probscp_072.txt.gz
Probability
65 65 67 56 30 8 1 0 0 0 0 0 0 0 0 0 0 0 0 0 0 0 0 0 0 0 0 0 0 0 0 0 0 0 0 0 0 0 0 0 0 0 0
78 77 76 64 38 15 4 0 0 0 0 0 0 0 0 0 0 0 0 0 0 0 0 0 0 0 0 0 0 0 0 0 0 0 0 0 0 0 0 0 0 0 0
87 86 85 75 52 28 11 3 0 0 0 0 0 0 0 0 0 0 0 0 0 0 0 0 0 0 0 0 0 0 0 0 0 0 0 0 0 0 1 1 1 0 0
86 86 88 83 67 45 24 9 2 1 1 1 0 0 0 0 0 0 0 0 0 0 0 0 0 0 0 0 0 0 0 0 0 0 0 0 0 1 2 2 1 1 1
80 84 89 89 78 62 41 20 7 4 3 2 2 1 1 0 0 0 0 0 0 0 0 0 0 0 0 0 0 0 0 0 0 0 0 0 0 1 2 2 1 1 1
72 76 82 86 81 70 55 34 16 8 4 2 2 2 1 0 0 0 0 0 0 0 0 0 0 0 0 0 0 0 0 0 0 0 0 0 0 0 1 1 1 0 1
63 63 66 74 75 70 61 46 29 16 9 5 4 3 2 1 1 1 0 0 0 0 0 0 0 0 0 0 0 0 0 0 0 0 2 3 3 2 1 0 0 0 0
58 50 47 54 62 63 59 51 38 26 17 12 8 6 5 4 3 2 1 0 0 0 0 0 0 0 0 0 0 0 0 0 0 0 4 8 7 5 3 1 0 0 0
53 39 29 32 41 47 47 42 36 29 23 17 12 10 8 5 3 2 1 0 0 0 0 0 0 0 0 0 0 0 0 0 0 0 4 10 11 8 4 1 0 0 0
45 30 16 16 21 25 25 24 24 23 20 16 12 9 6 3 2 1 1 1 0 0 0 0 0 0 0 0 0 0 0 0 0 0 3 13 18 13 5 1 0 0 0
38 25 11 8 8 8 7 8 11 13 12 10 6 4 3 1 1 1 2 3 2 0 0 0 0 0 0 0 0 0 0 0 0 1 7 22 31 23 10 3 0 0 0
36 22 10 5 4 2 2 3 3 4 4 3 2 1 1 0 1 2 4 6 5 2 0 0 0 0 0 0 0 0 0 0 0 3 16 36 47 38 21 9 3 0 0
34 21 10 8 5 5 5 3 0 0 0 0 1 1 0 0 1 2 6 8 6 2 1 1 1 1 0 0 0 0 0 0 0 6 24 47 57 51 36 19 8 2 1
33 21 13 15 16 19 18 8 2 1 1 2 4 4 2 1 2 4 8 10 7 3 4 4 4 3 2 1 0 0 0 1 3 10 30 53 63 60 48 30 14 6 3
36 25 21 28 39 46 40 23 11 8 8 10 14 12 7 6 8 11 17 19 13 11 15 16 13 13 14 12 9 8 8 8 11 19 35 55 65 66 58 42 25 13 9
42 35 35 48 65 70 58 40 25 18 17 22 27 24 17 17 22 27 32 32 27 28 35 36 33 33 35 33 28 25 23 24 28 34 41 52 60 64 63 55 43 28 20
53 50 49 59 74 77 64 47 32 24 26 35 43 41 34 35 43 48 48 46 45 48 54 56 54 52 53 52 47 40 38 42 46 47 48 47 48 52 59 63 57 43 33
67 68 63 62 70 72 64 51 37 33 41 51 57 56 52 52 59 64 63 62 63 65 66 66 65 64 64 62 56 48 46 50 51 47 45 43 39 40 49 57 57 48 40
80 80 75 70 72 71 65 57 50 50 59 64 64 62 62 63 67 72 73 73 73 74 73 71 71 71 68 62 53 45 43 42 39 34 33 33 31 33 38 43 45 43 40
85 84 82 80 80 77 71 65 61 63 67 68 66 64 66 68 71 73 74 74 72 72 72 70 68 64 55 45 35 29 28 27 23 21 21 21 22 25 27 29 30 30 30
79 80 80 81 82 80 77 73 69 68 67 68 67 64 63 65 66 66 65 64 62 60 58 55 50 43 33 24 18 16 15 14 12 12 12 12 13 16 16 16 16 15 15
65 67 69 72 75 77 76 75 74 71 67 64 61 56 51 50 51 51 50 48 45 42 38 34 31 26 19 14 12 11 8 7 5 5 6 5 6 7 6 6 6 6 5
50 51 53 58 63 67 72 73 72 69 63 55 48 40 34 31 31 31 30 28 27 25 22 20 18 16 13 11 10 8 6 4 3 2 1 1 1 1 1 1 2 2 2
32 33 35 39 42 49 58 64 63 57 50 41 32 24 19 15 12 12 13 12 12 11 10 9 9 10 10 9 8 7 5 4 3 1 0 0 0 0 0 0 1 1 1
17 18 18 19 21 26 35 43 45 40 32 24 18 13 10 6 4 4 4 3 3 3 3 3 5 7 7 7 6 5 3 2 1 1 0 0 0 0 0 0 0 0 0
11 11 9 9 10 13 18 24 28 27 21 15 11 9 6 4 3 3 3 2 1 0 0 1 3 5 5 5 5 3 1 0 0 0 0 0 0 0 0 0 0 0 0

GEFSSE_con_probscp_078.txt.gz
Probability
0 1 3 6 6 7 7 6 5 6 9 8 5 3 2 3 4 4 2 1 0 0 0 0 0 0 0 0 0 0 0 0 0 0 0 0 0 0 0 0 0 0 0
5 4 5 7 7 6 6 5 4 5 7 7 5 3 3 3 3 3 1 0 0 0 0 0 0 0 0 0 0 0 0 0 0 0 0 0 0 0 0 0 0 0 0
17 13 10 9 8 7 6 5 4 3 4 4 4 3 2 1 1 1 0 0 0 0 0 0 0 0 0 0 0 0 0 0 0 0 0 0 0 0 0 0 0 0 0
29 24 18 15 13 11 9 8 6 3 2 2 2 1 1 0 0 0 0 0 0 0 0 0 0 0 0 0 0 0 0 0 0 0 0 0 0 0 0 0 0 0 0
37 33 30 27 23 19 15 11 7 4 2 2 2 1 0 0 0 0 0 0 0 0 0 0 0 0 0 0 0 0 0 0 0 0 0 0 0 0 0 0 0 0 0
43 40 39 38 33 29 24 17 10 5 3 2 1 0 0 0 0 0 0 0 0 0 0 0 0 0 0 0 0 0 0 0 0 0 0 0 0 0 0 0 0 0 0
50 46 44 43 41 37 30 22 14 8 3 1 0 0 0 0 0 0 0 0 0 0 0 0 0 0 0 0 0 0 0 0 0 0 0 0 0 1 1 1 0 0 0
57 52 46 42 39 36 31 24 18 9 3 0 0 0 0 0 0 0 0 0 0 0 0 0 0 0 0 0 0 0 0 0 0 0 0 0 1 2 4 4 2 0 0
57 54 45 34 28 26 24 21 16 9 2 0 0 0 0 0 0 0 0 0 0 0 0 0 0 0 0 0 0 0 0 0 0 0 0 1 3 6 10 10 6 2 1
50 49 43 32 23 18 16 15 12 8 3 1 1 1 1 0 0 0 0 0 0 0 0 0 0 0 0 0 0 0 0 0 0 0 0 2 7 13 16 16 11 5 2
40 40 39 35 27 18 13 12 11 8 6 3 2 2 1 0 0 0 0 0 0 0 0 0 0 0 0 0 0 0 0 0 0 0 0 5 14 19 22 20 15 8 4
37 33 33 33 29 21 15 14 13 9 6 4 3 2 1 0 0 0 0 0 0 0 0 0 0 0 0 0 0 0 0 0 0 0 2 10 21 28 30 29 23 14 8
35 31 28 29 27 22 18 16 14 9 5 3 2 2 1 0 0 0 0 0 0 0 0 0 0 0 0 0 0 0 0 0 0 0 5 17 31 39 42 43 37 25 16
33 31 29 27 23 19 16 13 11 7 3 1 1 1 0 0 0 0 0 0 0 0 0 0 0 0 0 0 0 0 0 0 0 1 10 26 41 49 52 53 49 37 29
32 32 31 26 21 16 11 8 6 4 1 0 0 0 0 0 0 0 0 0 0 0 0 0 0 0 0 0 0 0 0 1 1 3 13 30 44 51 54 53 52 48 42
33 32 30 26 20 14 8 4 2 1 0 0 0 0 0 0 0 0 0 0 0 0 0 0 0 0 0 0 0 0 0 1 2 4 10 22 34 43 48 50 51 52 50
33 31 28 25 21 15 9 5 3 2 1 0 0 0 1 1 0 0 0 0 0 0 0 0 0 0 0 0 0 0 0 1 2 3 5 9 16 26 36 43 49 50 49
35 34 31 29 26 22 17 12 10 9 5 2 1 2 3 2 1 1 1 1 1 0 1 1 1 0 0 0 0 0 0 0 1 1 2 3 6 11 20 32 42 45 44
38 38 38 36 33 31 27 24 21 18 12 7 7 7 7 7 5 4 4 3 2 2 2 2 1 0 0 0 0 0 0 0 0 0 1 2 3 4 8 17 27 33 35
39 41 42 41 39 37 38 36 31 25 18 13 12 12 11 11 11 9 9 7 4 3 2 1 0 0 0 0 0 0 0 0 0 0 0 1 2 2 3 7 12 17 21
36 38 38 37 37 38 41 41 35 28 21 16 14 12 12 12 11 11 11 8 5 3 1 0 0 0 0 1 1 1 1 0 0 0 0 0 0 1 2 4 4 6 7
26 28 28 27 28 29 32 34 31 26 20 15 11 8 7 7 7 8 7 6 3 1 0 0 0 1 1 1 2 2 2 1 0 0 0 0 0 1 2 3 3 2 1
13 15 16 17 17 18 20 23 25 22 16 10 6 3 2 3 3 3 3 3 2 0 0 0 0 1 1 1 1 2 2 1 0 0 0 0 0 0 1 2 2 1 0
6 7 10 12 12 12 13 17 20 17 11 5 2 0 0 1 1 1 1 1 1 0 0 0 0 1 1 0 0 1 1 0 0 0 0 0 0 0 0 1 1 0 0
4 4 6 9 10 10 10 11 12 10 6 2 0 0 0 0 0 0 0 0 0 0 0 0 0 0 0 0 0 0 0 0 0 1 0 0 0 0 0 0 0 0 0
3 3 4 6 9 9 7 6 5 4 3 1 0 0 0 0 0 0 0 0 0 0 0 0 0 0 0 0 0 0 0 0 0 1 0 0 0 0 0 0 0 0 0

GEFSSE_con_probscp_084.txt.gz
Probability
7 6 4 3 4 8 16 22 24 23 20 15 10 8 6 5 4 3 4 5 6 5 4 4 4 4 5 6 6 5 4 3 3 3 3 3 3 3 3 3 3 3 3
10 10 7 4 4 8 15 22 25 25 22 18 13 10 8 5 4 3 3 4 5 5 4 5 4 4 5 5 5 3 2 3 3 3 3 3 3 3 3 3 3 3 3
16 15 11 6 5 10 17 23 25 27 24 20 16 13 9 6 4 4 3 4 5 5 5 6 6 6 5 4 3 1 0 1 3 3 3 3 3 3 3 3 3 3 3
21 20 15 11 11 15 19 23 26 27 25 21 17 13 11 9 7 5 4 4 6 7 6 6 6 6 4 2 1 0 0 0 1 1 2 3 3 3 3 3 3 3 3
24 21 17 17 20 22 24 25 26 28 28 25 20 16 15 14 11 8 6 5 6 7 7 6 5 3 2 0 0 0 0 0 0 0 1 3 3 3 3 3 3 3 3
25 22 20 24 28 30 31 29 28 29 31 30 26 22 20 18 13 10 8 6 5 5 4 3 2 1 0 0 0 1 1 1 0 0 1 2 3 3 3 3 3 3 4
31 28 30 34 34 33 33 36 36 33 32 33 31 29 24 17 12 10 7 6 4 3 2 1 0 0 0 0 1 2 2 1 0 0 0 2 3 3 3 3 3 4 4
41 41 42 41 34 30 33 41 43 37 33 32 32 30 24 14 10 8 6 5 3 1 1 1 1 1 2 2 2 3 3 2 1 0 1 2 3 4 4 4 4 4 4
55 53 50 43 33 29 33 40 42 38 33 30 27 23 17 11 8 6 4 3 2 1 2 2 2 3 3 3 3 3 3 3 2 1 1 2 4 5 6 6 5 4 4
63 58 51 45 39 35 34 37 38 35 31 26 21 14 10 9 7 5 3 3 2 3 3 3 3 3 3 3 3 3 3 2 2 1 1 2 4 6 8 8 8 6 6
59 53 48 46 45 42 39 40 42 39 34 28 21 13 9 8 6 4 3 3 3 3 3 3 3 3 3 3 3 3 1 1 1 1 1 2 4 6 8 9 9 7 6
51 47 43 43 46 46 47 51 53 48 41 34 25 17 12 10 8 6 4 3 3 3 3 3 2 2 1 1 3 3 1 1 1 2 3 3 4 6 7 9 8 7 6
47 46 43 41 43 47 55 63 63 56 48 38 28 20 15 12 9 7 5 4 4 4 3 2 1 1 1 1 3 3 3 2 3 3 4 5 6 7 8 9 10 9 8
44 45 45 44 44 48 59 66 65 59 50 38 27 21 16 12 9 7 6 6 5 4 3 1 0 0 1 2 3 3 3 2 3 4 4 5 8 10 11 13 15 15 15
38 39 42 45 46 50 57 61 61 53 43 34 25 19 15 11 8 6 6 6 5 4 2 1 0 0 1 3 3 3 1 1 2 3 4 6 10 13 15 18 20 21 19
34 34 37 42 44 47 49 51 48 39 30 23 18 14 11 8 6 4 5 5 5 3 1 0 0 0 1 2 2 2 1 0 0 1 2 5 9 14 17 20 22 20 18
34 33 35 37 39 40 37 34 30 26 20 14 9 8 8 6 4 3 4 5 4 2 0 0 0 0 0 1 1 1 0 0 0 0 0 2 6 10 13 16 18 17 14
35 34 34 34 34 33 27 20 16 16 13 7 4 4 4 3 3 3 3 3 2 1 0 0 0 0 0 0 0 0 0 0 0 0 0 0 2 4 6 10 13 13 11
31 31 32 32 32 28 23 15 11 9 6 3 1 1 1 1 2 2 2 1 1 0 0 0 0 0 0 0 0 0 0 0 0 0 0 0 1 2 4 6 8 9 9
27 27 28 29 28 26 23 18 11 6 3 2 0 0 0 0 1 1 1 0 0 0 0 0 0 0 0 0 0 0 0 0 0 0 0 0 1 3 4 5 6 6 6
25 25 24 22 21 21 22 19 13 7 4 2 0 0 0 0 1 2 1 0 0 0 0 0 0 0 0 0 0 0 0 0 0 0 0 0 1 3 4 5 5 5 5
22 21 18 15 13 15 17 16 11 7 5 3 1 1 1 1 2 2 1 0 0 0 0 0 0 0 0 0 0 0 0 0 0 0 0 0 1 2 3 3 4 5 5
17 15 13 9 8 10 11 10 7 5 4 3 3 2 2 1 1 1 0 0 0 0 0 0 0 0 0 0 0 0 0 0 0 0 0 0 0 1 1 2 2 3 3
12 11 9 8 7 8 8 7 5 3 2 2 2 2 1 1 0 0 0 0 0 0 0 0 0 0 0 0 0 0 0 0 0 0 0 0 0 0 0 0 0 1 1
7 7 8 8 7 6 5 4 3 1 1 1 1 1 0 0 0 0 0 0 0 0 0 0 0 0 0 0 0 0 0 0 0 0 0 0 0 0 0 0 0 0 0
4 5 7 8 7 5 3 2 1 0 0 0 0 0 0 0 0 0 0 0 0 0 0 0 0 0 0 0 0 0 0 0 0 0 0 0 0 0 0 0 0 0 0

GEFSSE_con_probscp_090.txt.gz
Probability
9 20 26 22 17 14 13 10 8 7 5 4 3 2 1 0 0 0 0 0 0 0 0 0 0 0 0 0 0 0 0 0 0 0 0 0 0 0 0 0 0 0 0
17 28 38 35 27 23 21 19 16 15 12 9 7 6 3 1 0 0 0 0 0 0 0 0 0 0 0 0 0 0 0 0 0 0 0 0 0 0 0 0 0 0 0
31 38 45 47 44 38 36 33 31 30 27 22 18 14 9 4 1 0 0 0 0 0 0 0 0 0 0 0 0 0 0 0 0 0 0 0 0 0 0 0 0 0 0
44 44 48 55 58 53 49 48 46 45 43 38 32 25 17 8 3 1 0 0 0 0 0 0 0 0 0 0 0 0 0 0 0 0 0 0 0 0 0 0 0 0 0
46 47 54 62 65 63 60 57 55 56 55 50 43 36 25 14 5 1 0 0 0 0 0 0 0 0 0 0 0 0 0 0 0 0 0 0 0 0 0 0 0 0 0
41 44 54 63 67 67 65 62 61 62 62 59 52 44 34 21 9 3 1 0 0 0 0 0 0 0 0 0 0 0 0 0 0 0 0 0 0 0 0 0 0 0 0
38 42 51 61 65 65 64 64 64 65 66 64 58 49 42 32 18 7 3 2 1 1 0 0 0 0 0 0 0 0 0 0 0 0 0 0 0 0 0 0 0 0 0
39 45 54 58 59 60 60 61 64 66 67 65 60 54 48 40 26 13 7 5 3 2 1 0 0 0 0 0 0 0 0 0 0 0 0 0 0 0 0 0 0 0 0
38 45 51 50 48 49 52 56 60 65 66 65 63 58 53 42 27 15 10 7 5 3 1 0 0 0 0 0 0 0 0 0 0 0 0 0 0 0 0 0 0 0 0
37 44 48 43 39 39 43 51 59 63 63 63 62 58 48 34 20 12 10 8 6 4 3 1 1 0 0 0 0 0 0 0 0 0 0 0 0 0 0 0 0 0 0
43 49 51 46 39 35 39 50 58 59 56 52 51 48 36 22 13 10 13 14 10 5 3 3 2 1 0 0 0 0 0 0 0 0 0 0 0 0 0 0 0 0 0
53 56 57 52 46 42 46 56 58 55 49 42 40 39 32 24 17 15 20 19 12 7 4 3 2 1 0 0 0 0 0 0 0 0 1 1 0 0 0 1 1 2 1
57 58 56 53 52 52 56 63 63 58 53 46 44 46 44 40 32 26 23 19 12 9 5 3 1 0 0 0 0 0 0 0 1 1 2 2 1 0 1 3 4 5 4
55 53 52 53 56 59 65 68 67 64 61 57 57 58 55 50 42 33 27 19 14 12 9 4 1 0 0 0 0 0 0 0 1 3 3 2 2 2 5 8 9 9 8
53 51 51 55 59 64 68 69 68 66 63 61 61 58 54 48 43 38 32 25 18 16 14 8 4 2 2 1 1 1 1 2 3 5 5 4 4 5 8 12 14 14 13
54 52 52 56 61 66 68 67 65 65 62 60 58 55 49 44 42 39 34 30 24 22 20 15 11 9 6 5 4 4 3 4 6 6 5 5 5 5 8 13 17 18 16
55 52 53 57 61 64 65 63 61 60 59 58 58 56 50 45 43 40 36 34 33 31 28 25 21 18 13 9 8 6 5 5 5 4 3 3 4 4 6 11 16 16 13
57 54 54 57 59 61 61 58 55 53 53 56 58 57 52 47 46 43 40 40 40 38 33 30 28 23 15 10 8 7 7 6 4 2 2 3 4 5 5 7 11 11 9
57 54 53 55 56 55 54 51 46 43 45 48 49 50 49 47 47 48 47 46 44 40 35 31 29 24 16 10 8 7 7 7 5 3 4 5 7 8 8 7 8 8 7
48 48 48 50 51 48 45 43 39 36 35 34 34 35 38 39 40 44 48 47 43 38 34 31 28 23 17 12 8 6 7 6 6 6 6 7 9 9 9 9 9 7 6
36 37 39 41 43 43 42 42 38 32 27 22 21 22 24 26 29 33 37 39 37 33 31 28 24 18 14 11 9 8 7 6 6 6 7 8 8 7 6 6 7 6 5
28 29 30 32 35 37 40 40 35 26 19 14 12 14 16 17 20 22 24 26 25 23 23 21 17 12 10 9 8 7 7 7 7 6 6 5 4 3 2 2 3 3 3
24 25 25 25 27 29 31 31 27 20 14 9 8 9 9 10 13 15 16 15 14 13 13 11 8 7 6 5 3 3 4 6 7 6 3 2 1 1 0 0 0 1 1
18 20 22 22 21 22 22 22 21 18 12 7 5 4 3 4 6 8 9 9 8 7 6 5 4 3 2 1 0 0 1 2 3 3 2 0 0 0 0 0 0 0 0
14 16 18 19 17 16 17 18 19 17 11 5 2 1 0 0 1 3 4 4 3 3 3 3 2 1 0 0 0 0 0 0 1 1 0 0 0 0 0 0 0 0 0
13 14 16 17 14 12 13 16 17 15 9 2 0 0 0 0 0 0 1 1 1 2 2 2 1 1 0 0 0 0 0 1 1 1 0 0 0 0 0 0 0 0 0

GEFSSE_con_probscp_096.txt.gz
Probability
41 45 47 38 27 20 14 8 3 1 1 1 2 2 1 1 3 3 2 1 0 0 0 0 0 0 0 0 0 0 0 0 0 0 0 0 0 0 0 0 0 0 0
57 55 54 47 34 24 16 10 6 3 3 2 3 2 2 2 3 4 4 3 2 1 0 0 0 0 0 0 0 0 0 0 0 0 0 0 0 0 0 0 0 0 0
74 66 61 56 44 32 23 16 10 6 4 3 3 4 4 4 4 5 6 6 4 2 0 0 0 0 0 0 0 0 0 0 0 0 0 0 0 0 0 0 0 0 0
79 70 65 63 55 43 33 25 16 10 7 5 5 6 6 6 6 6 5 5 4 2 0 0 0 0 0 0 0 0 0 0 0 0 0 0 0 0 0 0 0 0 0
74 68 69 72 67 57 47 36 25 17 12 10 9 10 11 11 10 7 3 2 2 1 0 0 0 0 0 0 0 0 0 0 0 0 0 0 0 0 0 0 0 0 0
61 62 71 80 77 69 59 48 38 28 23 20 18 17 18 17 15 10 5 2 1 1 0 0 0 0 0 0 0 0 0 0 0 0 0 0 0 0 0 0 0 0 0
48 55 69 80 81 75 67 60 54 47 41 37 32 29 29 27 22 15 10 6 4 3 1 0 0 0 0 0 0 0 0 0 0 0 0 0 0 0 0 0 0 0 0
44 53 65 74 78 75 71 69 69 66 62 57 51 45 42 37 29 20 16 13 8 5 3 1 0 0 0 0 0 0 0 0 0 0 0 0 0 0 0 0 0 0 0
46 53 60 64 68 70 72 75 76 76 73 69 64 57 50 41 30 22 19 16 11 6 3 1 0 0 0 0 0 0 0 0 0 0 0 0 0 0 0 0 0 0 0
50 53 54 54 57 60 65 72 75 76 75 71 66 60 51 36 24 18 18 17 11 5 2 2 1 0 0 0 0 0 0 0 0 0 0 1 2 1 0 0 0 0 0
56 54 48 45 46 46 52 62 68 69 69 65 59 54 45 27 16 13 17 19 13 5 3 3 2 0 0 0 0 0 0 0 0 0 3 5 4 1 0 0 0 0 0
62 54 43 40 40 39 48 63 63 58 58 55 50 45 34 21 13 15 24 29 20 9 7 5 3 1 0 0 0 0 0 0 0 1 6 13 10 3 1 1 1 1 1
64 56 45 43 41 41 55 69 62 53 50 48 45 39 29 22 21 28 37 36 25 15 11 9 5 2 0 0 0 0 0 0 0 2 10 19 17 8 3 2 2 2 2
68 62 54 53 50 52 65 70 61 55 52 49 49 43 34 31 32 38 43 36 24 15 10 9 6 2 1 1 1 1 0 1 1 2 10 18 18 12 7 5 5 5 5
71 68 63 61 60 64 72 70 63 63 60 57 57 50 40 38 39 41 43 35 23 15 11 7 6 6 7 6 6 6 6 5 5 5 7 12 14 12 9 9 10 10 9
70 67 63 62 65 70 73 72 69 69 67 64 62 54 43 41 43 44 44 40 30 25 21 15 15 18 18 15 14 15 16 16 15 11 8 8 9 10 12 14 14 13 12
67 64 59 57 62 68 71 69 67 67 66 64 59 52 43 40 43 45 46 47 42 40 39 34 33 35 30 23 20 20 21 22 21 17 12 9 8 8 11 13 14 13 12
66 63 59 58 62 67 67 63 58 57 56 53 49 44 38 35 38 42 44 48 49 49 47 44 44 43 34 25 21 17 15 15 15 14 11 9 8 7 7 8 10 12 12
63 63 64 66 67 65 58 51 45 41 39 37 35 34 31 30 33 37 38 43 46 45 41 40 41 39 30 20 15 11 7 6 7 9 10 10 10 7 5 5 7 9 9
59 60 63 66 65 59 49 39 32 26 24 24 25 26 25 26 27 28 31 34 37 37 35 34 32 28 21 14 8 5 4 4 7 10 12 12 10 7 5 5 6 6 5
53 54 57 58 57 52 44 36 28 22 20 20 21 19 17 18 19 20 22 27 31 33 33 30 26 19 13 9 5 2 2 4 7 10 11 9 7 5 3 3 4 4 2
45 46 48 50 50 46 41 36 30 25 21 18 16 13 10 10 13 14 16 20 25 28 26 24 20 14 7 5 3 1 1 2 3 4 5 5 4 2 1 1 2 2 1
36 37 38 41 43 41 38 35 32 27 21 15 11 8 6 7 8 10 11 13 15 16 16 15 14 9 4 1 1 0 0 1 1 1 2 3 3 2 1 1 1 1 0
28 28 31 34 35 35 35 35 32 26 19 13 8 5 4 5 6 7 8 7 8 8 7 6 6 4 1 0 0 0 0 1 1 0 1 2 2 1 1 0 0 0 0
22 23 25 26 26 26 28 30 28 22 15 9 5 3 2 2 3 4 5 4 4 3 3 2 2 1 0 0 0 0 0 0 0 0 0 1 1 0 0 0 0 0 0
20 20 20 20 19 20 21 23 23 17 11 6 3 2 1 1 1 2 2 2 1 1 1 1 1 0 0 0 0 0 0 0 0 0 0 0 0 0 0 0 0 0 0

GEFSSE_con_probscp_102.txt.gz
Probability
0 3 7 9 10 9 8 7 7 8 8 7 8 11 10 8 6 4 4 2 1 0 0 0 0 0 0 0 0 0 0 0 0 0 0 0 0 0 0 0 0 0 0
4 6 9 12 11 9 7 7 7 9 9 8 10 12 11 8 6 5 4 2 1 0 0 0 0 0 0 0 0 0 0 0 0 0 0 0 0 0 0 0 0 0 0
13 13 14 16 15 11 8 7 8 10 10 10 10 10 9 7 6 4 3 2 1 0 0 0 0 0 0 0 0 0 0 0 0 0 0 0 0 0 0 0 0 0 0
22 20 20 23 23 19 14 10 10 11 10 9 9 9 8 6 4 3 2 1 0 0 0 0 0 0 0 0 0 0 0 0 0 0 0 0 0 0 0 0 0 0 0
24 22 25 30 33 30 23 17 14 13 11 9 9 9 7 5 3 2 1 0 0 0 0 0 0 0 0 0 0 0 0 0 0 0 0 0 0 0 0 0 0 0 0
26 27 31 38 41 38 32 25 22 19 16 12 10 9 6 3 2 1 1 0 0 0 0 0 0 0 0 0 0 0 0 0 0 0 0 0 0 0 0 0 0 0 0
39 40 42 45 47 45 40 35 33 28 22 17 14 11 7 4 2 0 0 0 0 0 0 0 0 0 0 0 0 0 0 0 0 0 0 0 0 0 0 0 0 0 0
56 55 52 48 47 47 46 45 44 40 31 24 20 16 13 8 4 1 1 0 0 0 0 0 0 0 0 0 0 0 0 0 0 0 0 0 0 0 0 0 0 0 0
63 62 56 47 42 43 46 49 51 47 41 33 28 22 16 11 7 4 3 1 0 0 0 0 0 0 0 0 0 0 0 0 0 0 0 0 0 0 0 0 0 0 0
61 61 58 50 43 42 44 47 49 47 45 40 35 29 21 15 11 8 6 2 0 0 0 0 0 0 0 0 0 0 0 0 0 0 0 0 0 0 0 0 0 0 0
60 58 57 54 50 46 43 44 46 47 46 44 41 36 29 21 15 12 7 2 0 0 0 0 0 1 1 0 0 0 0 0 0 0 0 0 0 0 0 0 0 0 0
60 55 54 55 53 49 46 46 47 47 47 46 44 38 30 22 16 12 9 6 3 1 0 0 0 0 1 1 0 0 0 0 0 0 0 0 0 0 0 0 0 1 1
58 53 50 51 51 49 49 51 50 48 45 42 39 34 26 18 13 11 12 13 11 6 3 2 1 0 0 0 0 0 0 0 0 0 0 0 1 1 0 1 1 1 2
57 50 45 45 44 44 48 51 50 46 41 35 32 29 22 15 10 8 11 15 15 12 7 4 2 1 0 0 0 0 0 1 1 1 2 4 5 4 3 3 2 1 1
54 50 44 40 35 36 42 45 43 39 35 30 28 24 17 11 6 5 8 12 14 12 7 4 2 1 0 0 0 0 0 0 1 3 6 11 13 11 9 7 5 4 4
48 47 43 37 31 30 35 35 32 30 28 25 21 17 11 6 3 2 5 9 10 8 4 2 1 1 0 0 0 0 0 0 1 3 7 12 15 15 14 13 12 11 10
40 38 37 36 32 29 28 27 23 23 21 17 13 9 5 3 2 1 3 5 5 5 3 1 0 0 0 0 0 0 0 0 0 1 3 6 8 11 14 16 15 15 16
33 30 29 32 32 28 25 20 17 18 14 9 6 5 2 1 1 1 2 1 2 3 2 1 0 0 0 0 0 0 0 0 0 0 1 2 4 6 10 13 12 13 16
28 27 24 26 28 26 22 16 15 15 11 6 4 5 3 1 1 2 2 1 1 2 1 0 0 0 0 0 0 0 0 0 0 1 1 2 3 4 5 6 6 7 9
24 22 19 18 21 21 15 12 12 12 10 7 6 7 5 3 2 3 3 3 3 2 1 0 0 0 0 0 0 0 0 0 0 0 0 1 1 2 1 1 1 1 2
23 20 15 13 14 14 10 9 10 10 9 9 8 7 6 5 5 4 4 3 3 2 1 0 0 0 0 0 0 0 0 0 0 0 0 0 0 0 0 0 0 0 0
23 19 14 11 11 11 9 8 9 9 9 9 7 5 4 5 6 6 5 3 2 2 1 0 0 0 0 0 0 0 0 0 0 0 0 0 0 0 0 0 0 0 0
19 17 14 11 10 9 10 10 10 8 8 7 5 3 3 4 4 5 4 2 1 1 0 0 0 0 0 0 0 0 0 0 0 0 0 0 0 0 0 0 0 0 0
12 12 11 10 9 8 9 11 9 7 6 5 4 3 3 3 3 4 3 1 0 0 0 0 0 0 0 0 0 0 0 0 0 0 0 0 0 0 0 0 0 0 0
9 9 9 7 6 6 8 8 7 6 4 4 3 3 3 3 3 2 2 1 0 0 0 0 0 0 0 0 0 0 0 0 0 0 0 0 0 0 0 0 0 0 0
8 8 7 6 5 5 5 6 6 5 4 3 3 3 3 3 2 1 1 0 0 0 0 0 0 0 0 0 0 0 0 0 0 0 0 0 0 0 0 0 0 0 0

GEFSSE_con_probscp_108.txt.gz
Probability
4 4 2 1 1 4 10 19 27 32 32 29 23 17 12 7 3 1 0 0 0 0 0 0 0 0 0 0 0 0 0 0 0 0 0 0 0 0 0 0 0 0 0
6 7 6 3 2 5 8 14 22 28 30 29 25 20 15 11 7 3 1 0 0 0 0 0 0 0 0 0 0 0 0 0 0 0 0 0 0 0 0 0 0 0 0
11 13 12 9 6 7 8 11 16 23 28 29 26 21 17 13 9 5 3 1 0 0 0 0 0 0 0 0 0 0 0 0 0 0 0 0 0 0 0 0 0 0 0
16 18 19 17 13 10 10 12 15 20 25 27 25 21 15 11 9 6 3 1 0 0 0 0 0 0 0 0 0 0 0 0 0 0 0 0 0 0 0 0 0 0 0
22 23 26 26 22 16 15 15 17 21 24 25 24 21 15 11 10 7 4 1 0 0 0 0 0 0 0 0 0 0 0 0 0 0 0 0 0 0 0 0 0 0 0
33 31 33 36 33 26 22 21 22 23 23 22 22 21 17 14 13 10 5 1 0 0 0 0 0 0 0 0 0 0 0 0 0 0 0 0 0 0 0 0 0 0 0
43 40 40 44 42 34 29 28 28 27 25 23 21 21 21 18 16 14 9 4 1 0 0 0 0 0 0 0 0 0 0 0 0 0 0 0 0 0 0 0 0 0 0
50 49 46 46 44 41 39 36 35 35 31 27 24 24 23 21 19 18 14 7 2 1 0 0 0 0 0 0 0 0 0 0 0 0 0 0 0 0 0 0 0 0 0
54 53 49 44 42 44 45 44 44 42 37 31 27 25 24 22 21 21 18 11 4 1 0 0 0 0 1 1 0 0 0 0 0 0 0 0 0 0 0 0 0 0 0
51 52 48 43 41 42 43 45 48 46 40 33 28 25 24 23 23 24 21 16 8 3 1 1 1 0 1 1 1 0 0 0 0 0 0 0 0 0 0 0 0 0 0
47 47 45 42 40 39 40 43 47 48 45 41 35 31 30 27 25 24 22 17 11 6 3 3 2 2 3 3 1 0 0 0 0 0 0 0 0 0 0 0 0 0 0
45 45 43 42 41 41 42 45 47 49 50 49 46 42 38 31 26 24 20 15 12 11 10 9 8 7 6 5 2 0 0 0 0 0 0 0 0 0 0 0 0 0 0
44 43 42 43 44 45 48 50 50 50 50 50 49 46 39 29 25 24 19 16 16 17 17 18 16 13 10 8 5 1 0 0 0 0 0 0 0 0 0 0 0 0 0
41 40 40 43 46 50 54 56 54 49 47 45 44 43 36 27 22 20 19 18 19 20 21 20 18 15 12 10 6 2 0 0 0 0 0 0 1 1 0 1 1 0 0
35 35 36 40 45 49 53 56 54 48 44 41 39 38 34 27 20 16 16 17 18 18 17 16 14 13 12 9 5 2 0 0 0 1 2 4 5 5 3 2 1 0 0
31 31 32 38 41 42 44 48 48 42 38 35 32 29 27 23 17 14 13 13 12 11 11 10 9 9 8 5 3 2 1 1 1 3 7 11 13 12 10 6 3 2 1
30 29 29 32 33 32 34 36 35 31 27 26 23 20 18 15 13 13 11 8 6 4 4 5 5 5 4 2 1 2 1 1 2 5 8 13 17 18 17 14 9 5 3
28 25 24 24 24 24 24 24 23 20 18 17 15 12 11 11 12 12 9 5 3 1 0 2 3 3 2 1 1 1 1 1 1 2 4 7 12 16 18 17 12 8 5
24 21 18 16 15 15 16 15 15 13 12 10 8 7 7 9 12 11 6 3 3 1 1 1 1 1 1 0 0 0 0 0 0 0 0 1 4 8 10 11 9 7 6
17 15 12 10 10 11 12 13 12 10 8 6 5 4 6 9 11 10 6 4 4 3 3 2 1 0 0 0 0 0 0 0 0 0 0 0 0 1 2 3 3 3 2
9 8 7 6 7 9 10 11 9 7 6 4 3 3 5 8 10 10 8 7 6 5 4 2 1 0 0 0 0 0 0 0 0 0 0 0 0 0 0 0 0 0 0
4 4 4 4 5 6 6 6 5 4 3 2 1 2 5 8 9 9 8 7 6 6 3 1 1 0 0 0 0 0 0 0 0 0 0 0 0 0 0 0 0 0 0
3 3 3 3 3 3 3 3 3 2 2 1 1 2 4 6 6 6 6 5 5 5 3 1 0 0 0 0 0 0 0 0 0 0 0 0 0 0 0 0 0 0 0
2 2 2 1 1 1 2 2 2 2 2 2 2 2 3 4 4 4 4 4 4 3 1 0 0 0 0 0 0 0 0 0 0 0 0 0 0 0 0 0 0 0 0
1 1 1 0 0 0 1 1 1 1 1 1 1 2 3 3 3 3 3 3 3 1 0 0 0 0 0 0 0 0 0 0 0 0 0 0 0 0 0 0 0 0 0
0 0 0 0 0 0 0 0 0 0 0 0 1 2 3 3 3 3 3 3 2 1 0 0 0 0 0 0 0 0 0 0 0 0 0 0 0 0 0 0 0 0 0

GEFSSE_con_probscp_114.txt.gz
Probability
5 8 7 5 4 3 2 3 3 5 7 6 4 2 2 2 1 0 0 0 0 0 0 0 0 0 0 0 0 0 0 0 0 0 0 0 0 0 0 0 0 0 0
7 11 12 9 6 3 4 5 7 9 11 11 8 5 3 1 0 0 0 0 0 0 0 0 0 0 0 0 0 0 0 0 0 0 0 0 0 0 0 0 0 0 0
12 13 15 14 11 7 8 13 16 18 20 20 17 12 9 6 5 3 1 0 0 0 0 0 0 0 0 0 0 0 0 0 0 0 0 0 0 0 0 0 0 0 0
11 12 15 17 15 12 15 22 27 30 32 33 30 22 17 16 14 8 3 1 0 0 0 0 0 0 0 0 0 0 0 0 0 0 0 0 0 0 0 0 0 0 0
8 10 14 17 16 15 20 29 37 39 41 43 39 31 26 24 21 16 9 3 1 0 0 0 0 0 0 0 0 0 0 0 0 0 0 0 0 0 0 0 0 0 0
6 8 11 15 16 16 21 32 43 46 46 45 40 34 32 30 27 22 15 8 3 1 0 0 0 1 1 0 0 0 0 0 0 0 0 0 0 0 0 0 0 0 0
6 7 9 11 13 17 25 36 46 51 49 45 39 35 35 34 31 27 20 11 5 3 1 0 1 3 3 2 0 0 0 0 0 0 0 0 0 0 0 0 0 0 0
6 7 8 9 11 17 27 39 48 52 54 51 45 40 37 35 33 29 22 12 7 4 2 3 5 6 5 4 2 1 0 0 0 0 0 0 0 1 1 0 0 0 0
6 8 10 10 12 17 25 36 45 51 55 56 54 48 41 36 32 26 20 14 10 7 5 7 9 8 7 6 3 2 1 0 0 0 0 1 1 1 0 0 0 0 0
10 12 12 12 14 16 19 28 38 46 51 55 54 49 41 33 26 21 18 16 13 10 8 10 10 9 8 6 5 3 1 0 0 0 0 1 2 1 0 0 1 1 0
16 18 16 15 16 16 17 24 32 37 41 44 42 38 32 25 19 17 19 21 16 11 11 10 10 9 8 7 6 4 1 0 0 0 0 1 2 1 0 1 2 2 1
22 22 20 18 18 19 22 28 32 33 34 33 31 29 27 25 21 19 25 25 17 11 12 12 11 8 7 6 6 4 1 0 0 0 1 2 2 1 0 2 3 3 3
28 25 21 21 22 22 26 33 34 35 34 32 31 32 34 35 31 29 32 31 23 18 18 20 16 9 6 7 6 4 1 0 0 1 2 3 2 1 0 1 2 3 3
31 27 25 28 32 32 33 36 36 35 34 34 34 35 37 39 38 38 40 38 34 32 33 35 29 19 12 10 10 6 2 1 2 4 4 3 3 2 1 1 1 2 2
31 30 32 39 45 46 44 42 38 35 32 31 32 32 34 38 41 43 45 45 44 45 46 46 42 32 23 17 14 10 5 3 4 6 6 4 3 4 4 3 2 1 2
30 31 34 42 48 50 47 44 40 38 34 30 29 31 33 38 41 42 44 46 48 48 49 49 46 39 31 23 18 13 9 6 5 6 6 5 4 7 9 8 5 3 2
28 30 31 36 43 45 43 41 39 39 37 33 30 31 32 35 38 39 40 41 44 44 47 50 48 42 34 28 25 19 14 10 9 8 9 8 8 10 13 13 10 6 4
27 28 28 30 34 39 40 38 36 35 35 33 29 26 26 29 32 34 34 33 34 36 41 46 46 42 36 31 29 24 19 16 14 13 12 13 14 15 16 18 16 12 9
26 25 25 25 27 31 35 34 32 30 29 28 25 21 21 23 26 27 26 25 26 29 33 35 38 38 34 29 25 22 20 18 17 15 14 17 19 20 20 21 19 15 12
22 21 21 22 23 25 28 30 27 25 24 23 19 15 15 15 17 19 18 18 21 23 24 26 29 28 26 21 17 14 14 14 14 12 13 16 18 18 19 19 17 14 12
17 18 20 20 19 21 24 27 25 22 21 18 14 10 8 7 8 11 13 15 17 18 18 19 21 20 17 14 11 7 5 6 7 7 7 10 11 11 11 12 12 11 9
10 12 15 17 17 17 20 22 21 19 15 11 8 6 4 2 3 6 11 13 14 14 14 14 16 15 12 10 8 4 2 1 1 2 2 3 4 5 5 6 7 6 5
4 5 8 11 13 14 15 15 15 14 10 7 5 4 2 2 2 5 8 10 12 12 11 11 12 11 9 7 6 5 3 1 0 0 0 1 1 1 1 3 3 2 1
2 2 4 7 9 11 10 9 10 10 9 6 5 3 2 2 2 5 7 8 10 11 10 9 8 8 6 6 6 5 3 1 0 0 0 0 0 0 0 1 1 0 0
2 3 4 5 7 7 7 7 7 7 7 6 4 2 1 1 2 4 6 7 9 10 9 8 7 6 6 6 6 4 2 1 0 0 0 0 0 0 0 0 0 0 0
3 3 3 4 5 6 6 6 6 5 5 4 3 1 0 0 1 3 4 6 9 10 9 8 7 6 6 6 6 4 1 0 0 0 0 0 0 0 0 0 0 0 0

GEFSSE_con_probscp_120.txt.gz
Probability
13 10 11 9 3 0 0 0 0 0 0 0 0 0 0 0 0 0 0 0 0 0 0 0 0 0 0 0 0 0 0 0 0 0 0 0 0 0 0 0 0 0 0
19 15 12 9 4 1 0 0 0 0 0 0 0 0 0 0 0 0 0 0 0 0 0 0 0 0 0 0 0 0 0 0 0 0 0 0 0 0 0 0 0 0 0
19 15 12 10 5 2 0 0 0 0 0 0 0 0 0 0 0 0 0 1 1 0 0 0 0 0 0 0 0 0 0 0 0 0 0 0 0 0 0 0 0 0 0
14 12 10 10 7 4 2 1 1 1 0 0 0 0 0 0 0 1 1 1 1 0 0 0 0 0 0 0 0 0 0 0 0 0 0 0 0 0 0 0 0 0 0
15 13 12 11 10 7 5 4 3 2 0 0 0 0 0 0 2 3 2 1 1 0 0 0 0 0 0 0 0 0 0 0 0 0 0 0 0 0 0 0 0 0 0
19 16 14 14 11 9 9 8 6 3 2 1 1 1 2 3 5 5 3 1 0 0 0 0 0 0 0 0 0 0 0 0 0 0 0 0 0 0 0 0 0 0 0
23 19 18 17 12 9 11 11 10 7 6 6 7 7 7 7 8 6 3 1 0 0 0 1 1 0 0 0 0 0 0 0 0 0 1 1 1 0 0 0 0 0 0
24 19 17 17 13 11 13 14 16 16 16 18 18 17 15 14 13 8 4 2 1 0 0 1 2 1 0 0 0 0 0 0 0 1 1 2 1 0 0 0 0 0 0
22 16 12 12 11 11 13 18 24 28 31 33 34 31 26 22 18 13 8 6 4 3 2 2 2 2 0 0 0 0 0 0 0 0 1 3 4 2 0 0 0 0 0
23 15 8 7 6 5 8 18 28 34 39 44 46 43 37 28 21 15 14 13 11 7 5 4 3 2 1 0 0 0 0 0 0 1 3 7 9 7 3 1 0 0 0
26 18 8 5 5 4 7 15 24 28 32 39 45 45 38 29 20 16 20 25 20 12 9 7 5 3 2 1 0 0 0 0 0 3 9 15 17 14 7 3 1 0 0
31 21 12 11 11 10 13 18 20 21 23 27 34 36 31 24 20 22 31 39 31 19 13 10 8 5 4 3 3 2 1 0 1 5 14 21 23 19 12 6 2 1 0
37 29 22 21 22 22 24 25 23 22 22 22 26 29 25 22 24 32 43 45 37 25 18 15 11 6 5 6 6 5 2 0 1 7 17 26 27 22 16 9 4 2 1
40 36 32 33 35 37 38 36 33 32 27 25 27 29 27 26 30 39 45 42 33 25 22 18 12 7 8 9 8 6 4 2 4 11 22 30 29 25 20 13 6 4 4
41 38 38 43 48 51 52 49 46 42 36 34 34 33 35 36 36 39 41 37 29 26 26 21 13 11 14 14 12 11 11 10 11 18 25 28 28 26 23 17 11 8 7
41 39 42 48 54 58 58 57 53 47 43 42 42 39 39 42 42 41 41 39 35 33 32 25 17 18 20 20 20 21 22 21 21 24 26 23 23 23 23 21 17 12 9
43 43 45 48 53 56 56 56 54 50 47 47 47 44 40 40 43 44 43 43 40 37 34 28 25 26 26 23 25 29 31 31 30 29 26 21 18 18 18 19 20 20 17
47 47 46 47 50 53 53 51 51 51 51 51 48 43 37 35 37 40 42 42 37 33 30 27 27 29 25 21 24 29 32 33 30 28 24 19 15 13 13 16 21 24 23
47 46 46 47 49 51 50 48 48 49 50 49 44 36 31 28 30 35 38 37 32 29 26 23 23 22 18 14 17 21 23 24 23 21 19 16 13 12 11 13 17 19 19
41 40 41 42 45 48 49 49 49 47 46 44 38 31 27 26 27 31 34 33 30 28 25 22 20 17 13 10 10 11 11 12 13 13 12 12 12 11 9 9 10 11 12
32 32 31 35 39 43 47 50 49 47 44 40 34 30 27 26 26 27 28 28 28 27 24 21 19 16 11 9 8 7 6 5 5 5 6 7 8 8 6 4 4 6 7
26 25 25 29 34 37 41 44 45 43 39 34 29 26 24 22 22 22 23 23 24 23 21 18 15 13 10 8 8 7 4 2 1 1 2 3 5 5 3 2 2 3 4
21 20 21 24 28 30 33 38 40 39 34 28 23 20 19 18 18 18 18 18 19 18 17 14 12 11 9 7 6 6 4 3 1 0 1 2 2 2 2 1 1 1 1
16 16 18 20 23 24 28 33 35 33 28 22 18 17 16 14 13 13 12 12 12 12 12 11 10 10 9 7 5 5 5 4 1 0 0 1 1 1 1 0 0 0 0
11 11 13 15 17 19 21 25 27 24 19 17 16 15 13 11 9 8 8 7 7 7 8 9 9 9 8 7 6 5 4 3 1 0 0 0 0 0 0 0 0 0 0
7 8 9 11 13 15 16 19 20 17 14 13 14 13 11 9 7 6 5 4 4 5 6 8 9 8 7 7 7 6 4 2 1 0 0 0 0 0 0 0 0 0 0

GEFSSE_con_probscp_126.txt.gz
Probability
0 2 3 2 2 3 3 2 2 2 2 1 0 0 0 1 1 2 2 3 3 2 0 0 0 0 0 0 0 0 0 0 0 0 0 0 0 0 0 0 0 0 0
5 5 5 4 4 3 2 1 1 1 1 0 0 0 1 2 1 1 1 2 3 2 0 0 0 0 0 0 0 0 0 0 0 0 0 0 0 0 0 0 0 0 0
17 13 10 9 7 5 3 2 1 1 1 1 0 0 2 2 2 0 0 1 1 1 0 0 0 0 0 0 0 0 0 0 0 0 0 0 0 0 0 0 0 0 0
26 20 15 13 11 8 6 5 3 2 2 2 1 0 1 2 1 0 0 0 0 0 0 0 0 0 0 0 0 0 0 0 0 0 0 0 0 0 0 0 0 0 0
31 25 20 18 16 13 10 7 5 3 3 2 1 0 0 0 0 0 0 0 0 0 0 0 0 0 0 0 0 0 0 0 0 0 0 0 0 0 0 0 0 0 0
37 31 26 25 22 18 14 10 7 3 2 2 2 1 0 0 0 1 1 0 0 0 0 0 0 0 0 0 0 0 0 0 0 0 0 0 0 0 0 0 0 0 0
41 37 34 32 28 22 17 13 9 5 2 2 3 2 1 0 1 2 3 2 1 0 0 0 0 0 0 0 0 0 0 0 0 0 0 0 0 0 0 0 0 0 0
41 39 36 32 28 23 20 16 12 9 6 4 3 3 2 3 4 5 6 5 3 1 0 0 0 0 0 0 0 0 0 0 0 0 0 0 0 0 0 1 0 0 0
37 36 33 29 25 22 21 19 17 15 12 9 7 7 9 10 9 9 8 8 7 4 1 0 1 1 0 1 2 1 0 0 0 0 0 0 1 1 0 1 1 0 0
34 32 30 28 24 22 21 20 20 20 18 15 13 15 16 15 13 12 11 11 10 7 2 2 4 4 2 3 3 3 1 0 0 0 0 0 1 2 1 2 2 1 0
27 26 25 23 21 20 20 21 21 20 19 16 14 15 15 12 10 10 12 12 12 9 6 5 7 7 5 4 5 4 1 0 0 0 0 1 1 3 4 5 4 2 0
20 17 15 15 16 18 20 22 20 15 13 11 10 10 10 8 6 6 8 9 9 9 9 8 8 8 7 4 4 3 1 0 0 0 1 3 5 6 8 8 7 4 2
19 15 11 11 12 15 18 18 14 10 8 8 8 8 8 6 4 3 4 4 5 7 9 8 7 6 5 3 1 1 1 0 0 1 2 6 11 11 10 9 8 6 4
16 15 12 10 10 11 13 11 8 7 7 6 6 7 7 5 2 1 2 2 4 6 7 6 5 3 2 1 0 0 0 1 1 1 2 7 13 13 10 8 8 7 5
10 10 10 9 8 8 7 7 6 6 5 5 5 5 4 3 2 0 0 1 2 3 4 3 2 1 1 1 0 0 0 1 1 1 2 7 13 13 10 9 8 7 5
7 6 6 6 7 7 6 6 7 6 5 5 5 4 3 3 2 1 0 0 0 1 1 1 0 0 1 1 0 0 0 0 0 1 2 6 11 11 9 9 8 7 5
7 5 4 4 6 7 7 7 8 8 7 6 6 5 5 5 3 1 0 0 0 0 0 0 0 0 1 1 0 0 1 0 0 0 1 4 6 7 8 8 7 7 6
6 5 3 5 8 11 10 9 10 11 10 8 7 7 7 6 5 3 1 0 0 0 0 0 0 0 0 0 0 0 0 0 0 1 2 2 2 4 5 6 7 8 8
5 5 5 7 11 14 14 12 12 13 13 11 8 8 8 7 5 4 3 1 0 1 1 0 0 0 0 0 0 0 0 0 0 1 2 1 1 1 1 4 6 8 9
5 4 6 9 11 13 13 12 13 14 14 11 8 7 7 6 6 6 4 2 1 1 1 0 0 0 0 0 0 0 0 0 0 1 1 1 1 1 1 2 5 6 7
5 5 6 7 8 9 10 10 11 12 11 8 6 5 5 5 5 5 4 2 1 1 1 0 0 0 0 0 0 0 0 0 0 0 0 0 0 1 2 3 3 4 5
6 6 5 5 5 7 8 8 7 7 6 5 4 3 3 3 4 3 2 1 0 0 0 0 0 0 0 0 0 0 0 0 0 0 0 0 0 1 2 2 2 2 3
6 6 5 4 4 5 6 7 7 5 4 3 3 3 3 3 3 2 1 0 0 1 1 1 1 1 1 0 0 0 0 0 0 0 0 0 0 0 1 1 1 1 2
5 4 4 3 3 2 4 6 7 7 6 4 4 3 3 2 1 1 0 0 0 1 2 2 2 2 2 1 0 0 0 0 0 0 0 0 0 0 0 0 0 0 1
4 3 3 3 2 2 3 4 5 6 6 5 4 3 1 1 0 0 0 0 0 1 2 3 3 3 3 2 1 0 0 0 0 0 0 0 0 0 0 0 0 0 0
3 3 3 3 2 2 3 3 4 4 5 5 4 2 0 0 0 0 0 0 0 0 1 3 3 3 3 2 1 0 0 0 0 0 0 0 0 0 0 0 0 0 0

GEFSSE_con_probscp_132.txt.gz
Probability
1 1 3 4 4 9 18 22 20 18 12 7 8 9 6 2 1 0 0 0 0 0 0 0 0 0 0 0 0 0 0 0 0 0 0 0 0 0 0 0 0 0 0
3 2 3 4 5 10 16 21 22 19 15 11 9 8 6 4 1 0 0 0 0 0 0 0 0 0 0 0 0 0 0 0 0 0 0 0 0 0 0 0 0 0 0
8 5 3 5 7 11 15 21 24 22 18 14 10 6 5 3 2 0 0 0 0 0 1 1 1 0 0 0 0 0 0 0 0 0 0 0 0 0 0 0 0 0 0
12 7 5 8 11 14 18 22 25 24 19 14 7 3 1 1 1 0 0 0 0 0 1 2 2 1 1 0 0 0 0 0 0 0 0 0 0 0 0 0 0 0 0
16 11 10 16 20 23 25 26 25 23 18 10 4 1 0 0 0 0 0 1 1 1 1 2 3 3 2 1 1 1 0 0 0 0 0 0 0 0 0 0 0 0 0
21 18 20 26 31 32 33 30 26 20 15 8 3 1 1 1 1 0 1 2 3 3 2 3 4 5 4 3 3 2 1 1 0 0 0 0 0 0 0 0 0 0 0
27 26 30 37 40 39 38 33 26 19 15 11 6 4 3 3 2 1 3 4 5 4 4 4 4 4 5 4 4 3 3 2 1 0 0 0 0 0 0 0 0 0 0
32 31 35 42 45 44 39 33 25 19 18 16 13 10 8 5 3 3 4 6 6 6 6 6 6 4 4 4 4 3 4 3 1 0 0 0 0 0 0 0 0 0 0
34 35 38 43 46 45 39 32 24 18 17 18 17 15 12 10 7 6 6 6 6 6 7 9 8 6 5 6 5 5 5 3 1 0 0 0 0 0 0 0 0 0 0
32 34 37 40 43 44 40 32 23 18 17 16 14 13 12 12 11 10 9 8 6 5 7 10 10 8 8 10 9 7 5 3 2 1 0 0 0 0 0 0 0 0 0
27 29 33 37 40 41 39 32 25 21 17 14 11 10 9 9 9 11 12 12 10 7 7 10 11 9 9 10 10 7 5 4 4 3 1 1 1 0 0 0 0 0 0
24 25 29 34 36 37 35 31 26 22 17 12 10 8 7 6 6 8 10 12 11 8 9 10 11 11 9 8 8 5 4 5 5 4 2 2 2 1 1 1 1 0 0
25 24 24 26 28 28 27 26 23 18 13 11 9 8 6 4 4 5 5 5 6 6 8 9 10 11 10 9 7 4 3 5 5 2 2 3 3 2 1 2 2 2 1
20 19 19 18 17 18 18 18 16 12 10 9 9 7 6 5 3 2 1 1 1 2 4 6 7 8 8 8 7 4 2 3 3 2 2 4 6 5 3 2 3 3 3
10 11 13 14 13 11 11 12 11 9 8 8 8 8 7 5 3 1 0 0 0 0 1 2 3 4 5 6 6 5 3 2 2 2 3 5 8 9 6 4 3 3 3
5 6 8 10 8 6 6 8 9 8 7 7 7 7 6 4 3 1 0 0 0 0 0 0 1 1 2 3 4 4 3 2 1 2 3 5 6 8 8 6 4 3 3
4 3 4 4 3 2 3 6 9 8 6 5 5 5 3 3 3 2 1 0 0 0 0 0 0 0 0 1 1 2 2 1 1 1 2 3 4 5 7 7 5 4 4
3 2 2 2 1 0 2 5 8 7 5 3 3 2 1 1 3 3 2 1 0 0 0 0 0 0 0 0 0 0 0 0 0 0 1 1 2 3 4 4 5 5 4
2 2 2 2 1 0 2 4 6 6 4 2 1 0 0 1 2 2 2 1 0 0 0 0 0 0 0 0 0 0 0 0 0 0 0 0 0 1 1 2 5 6 5
1 1 2 1 1 1 2 3 2 2 1 1 0 0 0 0 1 1 1 0 0 0 0 0 0 0 0 0 0 0 0 0 0 0 0 0 0 0 0 1 5 6 5
0 0 1 1 1 1 2 1 0 0 0 0 0 0 0 0 0 0 0 0 0 0 0 0 0 0 0 0 0 0 0 0 0 0 0 0 0 0 0 1 3 3 3
1 1 0 0 0 1 1 0 0 0 0 0 0 0 0 0 0 0 0 0 0 0 0 0 0 1 0 0 0 0 0 0 0 0 0 0 0 0 0 0 1 1 1
2 2 1 1 0 0 0 0 0 0 0 0 0 0 0 0 0 0 0 0 0 0 0 0 0 0 0 0 0 0 0 0 0 0 0 0 0 0 0 0 0 0 0
3 3 3 2 1 1 0 0 0 0 0 0 0 0 0 0 0 0 0 0 0 0 0 0 0 1 1 1 1 0 0 0 0 0 0 0 0 0 0 0 0 0 0
3 3 4 4 3 2 1 0 0 0 0 0 0 0 0 0 0 0 0 0 0 0 0 0 0 1 2 2 2 1 0 0 0 0 0 0 0 0 0 0 0 0 0
3 3 4 4 4 3 2 1 0 1 1 1 0 0 0 0 0 0 0 0 0 0 0 0 0 1 2 3 3 2 1 0 0 0 0 0 0 0 0 0 0 0 0

GEFSSE_con_probscp_138.txt.gz
Probability
4 4 2 1 0 2 6 8 8 7 5 4 4 4 1 0 0 0 0 0 0 0 0 0 0 0 0 0 0 0 0 0 0 0 0 0 0 0 0 0 0 0 0
5 4 3 2 1 2 7 12 15 17 14 10 8 5 2 0 0 0 0 0 0 0 0 0 0 0 0 0 0 0 0 0 0 0 0 0 0 0 0 0 0 0 0
5 4 3 2 1 3 9 17 23 25 21 14 11 7 2 0 0 0 0 0 0 0 0 0 0 0 0 0 0 0 0 0 0 0 0 0 0 0 0 0 0 0 0
3 2 1 1 2 5 11 21 28 28 23 16 11 6 2 0 1 1 1 0 0 0 0 0 0 0 0 0 0 0 0 0 0 0 0 0 0 0 0 0 0 0 0
2 1 0 1 3 8 14 24 31 30 26 20 13 6 3 2 2 2 2 1 0 0 0 0 0 0 0 0 0 0 0 0 0 0 0 0 0 0 0 0 0 0 0
1 1 1 2 4 9 17 26 31 31 31 28 19 10 6 4 3 3 3 1 0 1 1 0 0 0 0 0 0 0 0 0 0 0 0 0 0 0 0 0 0 0 0
2 3 3 4 7 12 21 28 31 33 36 34 26 16 11 7 5 4 4 1 1 2 2 1 0 0 0 0 0 0 0 0 0 0 0 0 0 0 0 0 0 0 0
5 5 5 7 9 15 23 29 32 36 40 38 31 22 15 10 6 5 3 1 1 2 3 2 0 0 1 1 0 0 0 0 0 0 0 0 0 0 0 0 0 0 0
6 7 7 6 7 12 19 24 29 32 34 34 30 24 16 11 7 4 2 0 0 1 2 1 0 0 1 1 1 0 0 0 0 0 0 0 0 0 0 0 0 0 0
10 11 11 7 7 10 13 16 19 21 21 21 20 18 13 9 7 5 3 2 2 1 1 1 1 2 2 2 2 1 0 0 0 0 0 1 1 0 0 0 0 0 0
16 17 16 14 12 12 12 12 12 11 11 11 11 11 10 9 8 8 9 8 5 3 2 3 4 4 3 2 2 2 1 1 1 1 2 3 2 1 1 0 0 0 0
20 21 19 16 15 14 15 17 16 14 12 11 11 11 12 12 10 10 12 11 7 4 3 3 4 3 3 2 2 1 1 2 2 2 3 4 3 2 1 0 1 1 1
21 19 17 16 15 17 21 25 26 25 22 17 14 14 15 16 14 13 13 12 9 7 6 5 4 3 3 2 2 1 1 2 2 3 4 4 3 2 2 1 1 2 2
19 16 15 18 21 24 27 29 32 32 29 24 19 18 18 18 17 16 16 14 12 11 9 7 6 5 5 5 4 3 3 4 4 4 5 4 3 3 3 3 3 3 2
18 15 14 18 25 30 31 32 32 33 31 29 27 25 21 19 18 19 20 18 14 12 9 7 7 7 7 6 5 5 5 6 6 7 7 5 3 3 3 3 4 4 3
18 17 16 18 26 30 31 30 30 31 33 32 32 30 25 20 19 20 22 20 14 10 8 7 7 7 8 7 7 8 8 8 8 8 8 7 4 2 2 2 3 4 5
19 18 15 16 22 27 29 28 26 27 29 30 31 30 26 22 21 20 20 19 14 9 6 5 6 7 8 9 11 12 12 10 9 9 9 9 7 5 3 2 2 4 7
18 16 13 12 16 22 26 27 27 26 25 26 28 28 25 23 20 18 17 17 15 10 6 5 6 8 10 12 14 14 14 13 10 8 8 9 9 8 7 5 3 5 8
14 13 11 10 11 16 22 25 26 25 23 22 23 23 23 20 17 16 16 15 14 11 7 7 8 11 14 14 13 11 12 13 12 9 7 8 9 11 11 9 7 8 8
8 9 9 9 8 11 16 19 21 21 19 17 16 16 16 15 14 15 15 13 12 11 10 9 10 13 15 13 10 8 9 10 10 9 8 8 8 11 13 13 13 13 11
6 6 6 6 8 10 11 14 16 16 13 11 10 10 11 11 12 12 12 11 10 10 9 8 8 8 10 9 8 7 6 6 6 7 7 8 8 10 13 15 17 16 14
6 5 4 5 8 9 9 9 10 10 9 7 8 9 9 9 9 9 9 9 8 6 5 4 4 4 4 6 8 8 6 5 5 5 5 6 8 9 11 12 14 13 11
6 5 4 5 6 7 7 5 5 5 5 5 7 8 8 8 7 7 7 6 5 3 2 2 2 2 2 4 6 7 7 7 6 5 4 5 7 8 9 9 8 7 7
6 5 5 5 5 5 4 4 3 2 2 3 4 4 5 5 5 5 6 5 4 2 1 1 1 0 1 2 3 4 5 7 7 5 3 4 5 7 7 6 5 4 5
6 5 4 4 3 3 3 3 3 2 2 3 2 1 2 2 3 3 4 4 3 3 2 2 1 0 0 0 1 1 2 4 5 4 2 2 4 5 5 3 2 3 4
6 6 4 3 3 3 3 4 4 3 4 5 3 1 1 2 2 3 3 4 4 4 4 3 2 1 0 0 1 1 1 1 2 2 1 1 3 4 2 1 1 1 2

GEFSSE_con_probscp_144.txt.gz
Probability
9 8 8 6 3 1 0 0 0 0 0 0 0 0 0 0 0 0 0 0 0 0 0 0 0 0 0 0 0 0 0 0 0 0 0 0 0 0 0 0 0 0 0
9 9 8 7 4 3 2 1 1 1 0 0 0 0 0 0 0 0 0 0 0 0 0 0 0 0 0 0 0 0 0 0 0 0 0 0 0 0 0 0 0 0 0
9 8 9 9 8 7 5 3 3 2 1 0 0 0 0 0 0 1 1 1 0 0 0 0 0 0 0 0 0 0 0 0 0 0 0 0 0 0 0 0 0 0 0
10 10 11 12 12 11 8 6 6 5 2 1 1 0 0 0 0 1 2 1 0 0 0 0 0 0 0 0 0 0 0 0 0 0 0 0 0 0 0 0 0 0 0
16 15 15 17 17 14 11 9 8 6 4 3 3 1 0 0 0 1 1 1 0 0 0 0 0 0 0 0 0 1 1 0 0 0 0 1 1 1 0 0 0 0 0
19 17 18 22 22 20 17 15 12 11 11 10 8 4 1 0 0 0 0 0 0 0 0 0 0 0 0 0 0 1 1 0 0 1 1 2 2 2 1 0 0 0 0
16 15 18 24 28 27 25 22 20 20 21 21 18 12 6 2 1 1 1 0 0 0 0 0 0 0 0 0 0 1 1 0 0 1 1 3 6 6 3 1 0 0 0
13 13 14 19 26 29 28 27 26 25 26 28 26 20 11 5 4 3 2 1 0 0 0 0 0 0 0 0 0 0 0 0 0 0 1 5 11 11 6 2 1 0 0
16 13 10 12 18 23 24 25 25 25 25 24 22 17 11 7 6 5 4 3 1 1 1 1 0 0 0 0 0 0 0 0 0 0 1 6 13 13 8 4 2 0 1
25 19 13 12 14 16 18 20 22 23 22 18 13 10 8 7 6 5 5 5 3 2 2 2 2 1 1 0 0 0 0 0 0 1 3 8 15 14 9 5 3 1 1
35 28 21 18 16 15 15 17 18 18 18 15 9 6 6 6 6 5 6 8 7 4 3 3 4 3 2 1 1 2 1 0 0 1 6 15 20 16 11 7 5 3 2
41 35 29 25 21 17 17 18 17 16 16 12 8 7 8 9 10 11 14 16 14 8 4 3 4 4 3 2 3 3 1 0 1 2 8 19 24 20 14 11 8 5 4
44 39 34 33 30 27 25 23 21 21 20 16 13 13 12 12 14 19 25 26 22 14 9 7 6 6 5 5 4 3 2 2 3 5 10 18 23 21 17 14 11 7 5
50 45 41 41 42 42 38 31 28 27 26 24 22 20 18 17 19 23 28 30 26 20 16 14 12 10 9 8 6 3 3 4 6 9 13 17 21 21 19 15 10 6 5
51 47 45 45 48 50 47 39 35 33 30 29 29 28 25 25 25 25 27 28 27 24 22 20 18 16 15 12 8 5 4 6 9 12 14 18 21 22 21 17 13 9 7
49 46 44 43 45 49 48 42 37 36 35 34 35 33 31 30 29 29 29 29 27 27 27 23 20 19 18 13 8 6 6 8 12 15 17 19 21 22 22 21 18 14 11
47 44 41 39 42 46 45 39 35 36 38 39 38 35 31 29 29 31 32 32 30 29 28 25 22 21 18 13 10 9 10 12 16 20 23 24 23 21 21 23 20 16 15
44 41 36 35 39 42 40 34 33 35 38 39 38 34 30 28 28 30 32 33 30 28 27 25 24 24 21 16 13 11 13 17 21 26 28 27 23 19 19 20 17 14 14
39 35 31 30 34 37 35 31 32 33 35 36 35 31 26 24 24 26 27 27 26 25 25 25 27 26 22 18 13 13 17 22 26 29 29 26 22 19 17 16 15 13 12
31 30 28 27 28 29 28 28 28 29 29 29 28 25 22 19 19 19 18 17 18 19 21 23 23 22 20 16 12 13 20 26 28 28 26 23 21 18 16 15 15 14 12
23 25 24 22 22 23 23 23 22 22 22 21 19 19 18 17 15 12 10 9 11 14 16 16 15 15 14 13 11 13 18 22 22 22 20 18 16 15 13 13 14 14 12
20 21 19 17 18 20 22 21 19 17 15 12 11 12 13 13 11 8 5 5 7 10 12 10 9 8 7 8 8 9 11 12 12 13 15 12 10 10 10 10 11 11 11
19 18 16 14 15 18 20 19 16 14 11 7 4 5 6 6 6 5 3 3 5 7 9 8 7 4 3 3 4 5 5 5 4 7 9 8 6 6 7 7 7 8 9
15 14 13 13 15 17 17 15 12 9 7 4 3 2 2 2 2 2 2 3 4 5 6 7 5 3 2 2 3 4 4 3 2 3 5 5 4 5 6 5 5 6 7
12 12 12 13 14 16 15 12 8 6 4 4 5 4 2 1 0 0 1 2 4 4 5 6 3 2 3 3 3 3 3 2 1 1 2 2 3 4 4 4 4 5 5
12 12 12 12 13 14 13 11 8 5 4 5 6 5 3 2 1 0 1 2 3 4 4 4 3 2 3 3 3 3 3 2 1 0 0 1 2 2 2 2 2 3 4

GEFSSE_con_probscp_150.txt.gz
Probability
3 3 4 6 6 4 2 0 0 0 0 0 2 5 8 10 12 12 10 5 1 0 0 0 0 0 0 0 0 0 0 0 0 0 0 0 0 0 0 0 0 0 0
4 4 6 8 9 7 4 2 1 1 0 0 2 4 6 8 10 9 7 3 1 0 0 0 0 0 0 0 0 0 0 0 0 0 0 0 0 0 0 0 0 0 0
5 6 9 12 13 10 6 4 3 3 1 0 1 3 4 6 6 5 4 3 1 0 0 0 0 0 0 0 0 1 1 1 1 1 0 0 0 0 0 0 0 0 0
9 10 12 14 16 14 10 8 7 6 5 3 2 3 3 3 4 3 2 2 2 0 0 0 0 0 0 0 0 1 2 2 2 1 0 0 0 0 0 0 0 0 0
11 13 14 15 18 17 15 12 11 10 8 7 6 4 3 2 3 3 3 2 1 0 0 0 0 0 0 0 0 1 3 3 1 0 0 0 0 0 0 0 0 0 0
9 12 16 19 20 19 18 16 14 12 11 10 9 7 5 3 3 4 4 3 1 1 1 1 1 0 0 1 1 2 3 2 1 0 0 0 0 0 0 0 0 0 0
7 9 16 23 24 22 21 19 17 14 13 12 10 10 8 5 4 4 4 4 3 2 2 2 1 1 1 2 3 3 3 1 0 0 0 0 0 0 0 0 0 0 0
10 11 15 21 24 26 27 25 21 18 16 13 11 11 9 7 6 5 5 4 3 2 2 1 1 1 1 2 3 4 3 1 0 0 0 0 0 0 0 1 0 0 0
11 12 11 12 15 21 25 25 23 19 15 12 11 11 10 9 8 6 5 4 2 1 1 0 0 0 1 2 3 4 4 2 1 0 0 0 0 0 0 1 1 0 0
9 8 6 4 5 8 12 17 19 16 13 11 11 11 10 7 6 5 4 3 1 0 0 0 0 0 0 1 2 3 3 2 1 0 0 1 1 1 1 2 2 2 1
8 6 3 3 3 4 6 10 12 12 11 9 8 9 7 4 3 4 5 5 3 2 2 2 1 1 0 0 1 1 1 1 0 0 1 3 3 3 2 3 3 3 3
8 7 5 4 6 8 8 9 10 10 8 5 4 4 3 1 1 3 6 7 6 5 4 4 4 3 2 1 1 0 0 0 0 0 3 5 6 4 3 2 3 3 2
11 10 8 7 8 8 7 7 8 8 6 3 1 1 1 1 1 2 3 5 5 4 3 3 4 4 3 2 1 0 1 2 1 1 4 7 6 5 4 4 4 2 1
17 14 10 8 7 7 6 6 6 6 6 4 2 1 2 2 1 1 1 1 2 2 2 1 2 3 3 2 1 1 2 2 2 1 3 6 6 5 5 6 6 4 1
23 18 15 12 11 11 11 9 8 8 7 6 5 4 3 3 1 1 0 0 0 1 1 1 1 1 2 2 2 2 3 3 3 2 2 4 7 7 6 7 7 5 3
26 23 21 18 15 15 14 13 12 10 9 8 7 6 5 5 4 2 0 0 0 0 0 0 0 0 1 1 2 3 3 4 4 2 1 3 7 8 7 7 7 6 4
24 23 22 19 15 12 11 11 11 10 10 9 9 9 8 7 7 4 1 0 1 1 0 0 0 0 0 0 1 2 3 4 3 2 1 2 5 6 6 7 8 7 6
18 17 17 16 11 7 6 6 8 10 10 10 11 11 10 8 8 6 3 2 2 2 1 0 0 0 0 0 0 1 1 2 2 1 1 2 2 2 3 5 8 8 7
12 13 13 10 7 4 3 4 6 9 11 11 11 11 9 8 7 6 4 3 3 2 1 0 0 0 0 0 0 0 0 1 1 0 1 1 1 0 1 2 5 5 5
10 11 9 6 3 3 3 5 6 9 10 9 8 8 8 7 6 5 3 3 3 2 1 1 1 1 0 0 0 0 0 0 0 0 0 0 0 0 0 0 1 2 2
9 8 6 3 1 1 3 5 5 6 7 5 5 5 5 5 5 4 3 3 3 2 2 2 2 2 1 0 0 0 0 0 0 0 0 0 0 0 0 0 0 0 1
7 6 4 2 0 0 2 3 3 3 4 3 3 2 2 2 3 2 1 1 2 2 2 2 3 2 1 0 0 0 0 0 0 0 0 0 0 0 0 0 0 0 1
7 6 4 3 1 0 0 1 1 1 2 2 1 1 0 0 1 1 0 0 0 0 1 1 1 1 1 0 0 0 0 0 0 0 0 0 0 0 0 0 0 0 1
7 6 4 3 2 1 0 0 0 0 1 1 0 0 0 0 0 0 0 0 0 0 0 0 0 0 0 0 0 0 0 0 0 0 0 0 0 0 0 0 0 0 0
8 6 4 3 3 1 0 0 0 0 0 1 1 1 0 0 0 0 0 0 0 0 0 0 0 0 0 0 0 0 0 0 0 0 0 0 0 0 0 0 0 0 0
9 7 5 4 3 2 1 0 0 0 1 2 3 2 1 0 0 0 0 0 0 0 0 0 0 0 0 0 0 0 0 0 0 0 0 0 0 0 0 0 0 0 0

GEFSSE_con_probscp_156.txt.gz
Probability
2 3 3 2 3 4 4 4 4 4 4 4 4 5 5 5 4 4 4 3 3 3 3 3 3 3 3 3 3 3 3 3 3 3 2 2 2 3 3 3 3 3 3
3 3 3 3 5 6 6 6 5 5 6 6 6 7 8 7 7 6 4 3 3 3 3 3 3 3 3 3 3 3 3 3 3 3 2 1 2 3 3 3 3 3 3
3 3 4 5 8 10 9 8 8 8 8 10 10 11 11 10 8 7 4 3 3 4 4 3 3 3 3 3 3 3 3 4 4 2 2 2 2 3 3 3 4 4 4
4 4 6 9 12 13 13 11 10 10 11 13 14 12 10 9 8 7 5 4 5 6 5 4 3 3 3 3 3 3 4 5 4 3 2 3 3 3 3 4 5 5 4
6 6 8 13 16 18 18 16 13 12 14 16 16 14 10 8 9 10 8 6 7 7 6 4 4 4 4 4 3 3 4 5 4 3 3 3 3 3 4 5 6 4 4
7 7 11 17 22 24 24 22 18 16 17 19 19 17 14 12 13 13 12 10 9 8 7 5 5 5 5 4 4 3 3 4 3 3 3 3 3 3 4 5 5 4 3
9 9 13 21 26 27 26 23 21 19 19 20 22 22 22 19 16 15 15 12 10 9 8 7 5 5 4 4 3 3 4 4 3 3 3 3 3 3 3 4 5 4 3
8 9 13 19 22 23 23 22 20 17 17 19 21 22 22 22 17 14 12 11 9 9 9 7 5 4 3 3 3 4 5 5 5 4 2 1 2 3 3 4 5 4 4
6 7 9 11 14 16 20 22 20 16 15 16 17 16 17 18 15 11 10 9 7 7 8 7 5 4 4 4 4 5 6 6 6 5 3 1 1 1 3 4 5 5 4
4 6 6 5 7 11 16 19 19 16 13 14 14 12 10 11 10 9 11 10 7 7 7 7 5 5 6 7 6 6 6 6 6 6 4 2 1 1 2 4 6 6 4
5 5 5 5 6 7 9 12 13 11 10 11 12 10 8 6 6 7 10 11 9 9 8 7 7 7 8 8 7 7 6 4 4 4 4 3 2 2 2 4 6 6 4
6 4 4 6 7 6 6 7 7 6 5 7 9 9 8 6 5 6 7 7 7 7 7 8 8 8 8 7 6 7 5 2 2 3 4 4 3 2 2 3 5 5 4
6 5 5 7 8 7 7 9 9 8 6 6 7 8 9 7 5 5 5 4 4 4 5 7 8 8 7 6 6 5 3 1 1 3 3 5 6 5 4 5 6 5 4
8 7 6 8 10 10 11 13 14 13 11 9 8 8 8 6 4 4 3 3 4 4 4 5 6 5 4 5 5 4 2 2 3 4 4 5 7 8 8 8 7 5 4
8 7 7 9 11 12 13 14 15 14 11 10 8 7 6 5 4 4 4 4 4 4 4 5 4 3 2 3 4 3 3 4 5 5 4 4 5 7 9 9 8 7 6
6 5 5 7 9 10 10 11 12 10 8 7 7 6 6 6 6 6 5 4 3 3 4 4 3 2 2 2 2 1 1 3 5 4 3 2 3 5 7 7 7 8 8
3 3 3 4 6 6 6 7 6 5 5 4 4 4 5 6 7 7 6 5 4 3 2 2 2 2 2 1 0 0 0 2 3 3 1 1 2 4 6 7 7 9 9
4 3 3 3 4 4 3 3 2 1 1 2 2 2 3 5 7 8 6 4 3 3 1 0 1 2 2 1 0 0 0 0 1 1 0 0 1 3 5 6 6 8 8
6 5 4 3 3 2 1 1 1 0 0 1 2 2 3 4 6 7 5 3 2 2 1 0 1 2 2 1 0 0 0 0 0 0 0 0 1 2 3 3 5 6 6
6 6 5 4 2 1 0 0 0 0 0 1 2 3 3 4 5 4 3 2 1 1 1 1 1 1 1 0 0 0 0 0 0 0 0 0 0 1 1 1 3 5 5
6 6 5 4 2 0 0 0 0 0 0 0 1 2 3 3 3 2 1 1 0 0 1 1 1 1 0 0 0 0 0 0 0 0 0 0 0 0 0 0 2 3 4
6 6 5 4 2 0 0 0 0 0 0 0 0 1 1 2 1 1 0 0 0 0 0 1 1 0 0 0 0 0 0 0 0 0 0 0 0 0 0 0 1 2 2
7 6 4 3 2 1 1 1 0 0 0 0 0 0 0 0 0 0 0 0 0 0 0 0 0 0 0 0 0 0 0 0 0 0 0 0 0 0 0 0 0 1 1
7 6 4 2 2 2 2 2 1 0 0 0 0 0 0 0 0 0 0 0 0 0 0 0 0 0 0 0 0 0 0 0 0 0 0 0 0 0 0 0 0 0 0
7 6 3 2 2 3 3 2 1 0 0 0 0 0 0 0 0 0 0 0 0 0 0 0 0 0 0 0 0 0 0 0 0 0 0 0 0 0 0 0 0 0 0
6 5 2 1 2 3 3 2 1 0 0 0 0 0 0 0 0 0 0 0 0 0 0 0 0 0 0 0 0 0 0 0 0 0 0 0 0 0 0 0 0 0 0

GEFSSE_con_probscp_162.txt.gz
Probability
1 0 1 1 1 0 0 1 4 5 5 5 4 3 2 1 0 0 0 0 0 0 0 0 0 0 0 0 0 0 0 0 0 0 0 0 0 0 0 0 0 0 0
2 1 0 0 0 0 0 2 5 6 4 4 3 3 2 1 0 0 0 0 0 0 0 0 0 0 0 0 0 0 0 0 0 0 0 0 0 0 0 0 0 0 0
2 1 0 1 0 0 0 3 6 6 4 3 4 3 2 0 0 0 0 0 0 0 0 0 0 0 0 0 0 0 0 0 0 0 0 0 0 0 0 0 0 0 0
2 1 2 3 2 0 0 2 5 6 4 4 5 4 2 1 0 0 0 0 0 0 0 0 0 0 0 0 0 0 0 0 0 0 0 0 0 0 0 0 0 0 0
1 1 3 5 4 1 0 1 4 5 4 5 5 4 3 2 0 0 0 0 0 0 0 0 0 0 0 0 0 0 0 0 0 0 0 0 0 0 0 0 0 0 0
0 1 4 7 7 4 2 2 4 5 5 5 6 5 3 1 0 0 0 0 0 0 0 0 0 0 0 0 0 0 0 0 0 0 0 0 0 0 0 0 0 0 0
1 1 4 8 10 8 5 5 6 7 7 7 7 5 3 2 1 1 0 0 0 0 0 0 0 0 0 1 1 0 0 0 0 0 0 0 0 0 0 0 0 0 0
1 2 3 7 9 8 7 8 10 12 13 11 8 7 6 5 4 3 1 1 1 0 0 0 0 0 0 1 1 0 0 0 0 0 0 0 0 0 0 0 0 0 0
1 2 3 5 6 6 7 9 13 16 15 12 10 10 10 8 6 4 3 3 2 1 0 0 0 0 0 1 1 0 0 0 0 0 0 1 1 1 0 0 0 0 0
1 2 3 4 4 4 5 7 11 13 12 10 9 10 9 7 5 3 4 5 5 3 1 1 1 0 0 0 0 0 0 0 1 1 2 3 3 1 0 0 0 0 0
1 2 2 2 2 2 3 4 5 6 7 7 7 8 7 5 3 3 5 8 7 5 3 2 1 0 0 0 1 1 1 1 2 3 5 7 5 1 0 0 0 0 0
2 2 2 1 1 1 3 4 3 4 6 7 7 8 6 5 4 6 9 10 9 7 6 5 3 1 1 2 2 1 2 3 3 5 9 11 7 3 2 1 1 0 0
5 4 4 4 4 4 6 6 5 6 10 11 13 13 11 10 10 11 13 13 11 11 11 10 7 4 4 5 4 3 3 5 6 9 13 14 10 5 4 3 2 1 0
10 8 8 9 10 11 11 11 11 12 15 17 19 20 18 17 16 16 17 17 16 17 17 15 12 10 8 7 6 6 6 7 9 14 17 16 10 7 6 5 5 4 3
12 12 12 13 15 16 17 17 18 20 22 21 23 23 21 20 18 16 19 19 18 21 22 20 17 15 14 10 7 7 9 9 11 15 17 15 11 9 9 9 9 8 8
12 12 13 14 15 16 19 21 22 23 24 22 21 21 20 18 16 15 17 18 19 21 23 22 18 17 16 13 9 8 9 10 11 13 14 13 11 11 13 14 14 12 12
16 15 14 14 14 17 21 24 23 22 21 19 17 17 15 13 14 16 17 18 19 20 22 22 19 17 16 16 14 12 12 13 13 13 14 13 11 12 15 17 16 13 11
20 19 18 16 18 22 25 24 21 19 18 15 13 12 11 11 13 16 18 19 19 20 21 22 20 18 17 19 20 17 15 16 15 13 14 15 13 12 14 15 13 10 8
22 21 20 21 23 25 24 20 17 16 14 11 9 9 10 11 11 13 16 18 19 20 21 21 19 18 18 19 20 17 15 15 14 12 12 14 13 13 13 13 9 6 5
21 20 19 20 23 23 19 15 13 12 10 9 7 6 7 8 9 11 13 16 18 20 19 17 16 16 17 17 15 13 13 12 10 10 10 11 12 11 10 11 10 7 6
19 17 17 18 19 19 17 15 12 9 8 6 4 3 3 4 6 9 11 13 15 15 15 14 13 13 14 14 13 11 9 8 8 8 8 9 9 8 7 8 9 9 7
18 17 16 16 15 15 15 14 12 9 7 4 2 1 1 1 2 5 8 9 10 10 10 10 10 11 11 13 14 12 8 7 7 7 7 7 6 6 5 4 6 7 7
18 17 16 15 13 12 12 11 11 10 8 5 3 1 0 0 0 2 4 5 5 6 6 7 8 8 9 11 12 11 9 9 8 6 5 4 4 4 4 4 4 6 6
16 16 16 14 12 11 10 9 9 10 9 6 4 2 1 0 0 1 1 3 3 4 4 4 5 5 6 8 8 7 9 10 8 5 3 3 3 3 3 4 5 6 6
14 15 15 13 11 9 8 8 8 9 8 6 4 3 1 0 0 0 1 2 2 2 3 3 3 3 4 5 4 3 5 7 6 3 2 3 3 3 3 3 4 5 6
13 13 13 13 11 9 7 6 7 7 7 5 4 2 1 0 0 0 0 1 1 1 2 2 2 2 4 4 4 2 2 4 4 2 2 2 3 3 3 3 4 4 4

GEFSSE_con_probscp_168.txt.gz
Probability
1 2 4 2 0 0 1 1 0 0 0 0 0 0 0 0 0 0 0 0 0 0 0 0 0 0 0 0 0 0 0 0 0 0 0 0 0 0 0 0 0 0 0
3 4 5 4 1 0 1 2 1 0 0 0 0 0 0 0 0 0 0 0 0 0 0 0 0 0 0 0 0 0 0 0 0 0 0 0 0 0 0 0 0 0 0
6 4 5 5 2 0 1 2 2 1 1 1 1 1 0 0 0 0 0 0 0 0 0 0 0 0 0 0 0 0 0 0 0 0 0 0 0 0 0 0 0 0 0
7 5 5 5 3 1 1 2 1 1 2 2 2 2 1 0 0 0 0 0 0 0 0 0 0 0 0 0 0 0 0 0 0 0 0 0 1 1 0 1 1 0 0
9 8 8 7 4 2 2 1 1 2 3 3 3 3 2 1 0 0 0 0 0 0 0 0 0 0 1 0 0 0 0 0 0 0 1 1 2 2 1 2 2 1 0
12 11 11 10 8 5 3 2 2 3 3 3 3 3 3 2 1 0 0 0 0 0 0 0 0 0 0 0 0 0 0 0 0 0 1 2 5 6 5 3 2 1 0
13 12 12 13 13 10 6 4 4 4 3 2 3 3 3 3 2 1 0 0 0 0 0 0 0 0 0 0 0 0 0 0 0 0 1 5 10 12 9 5 3 1 0
16 15 14 14 15 14 11 9 7 5 4 2 2 2 2 2 2 1 0 0 0 0 0 0 0 0 0 0 0 0 0 0 0 0 2 8 16 16 11 7 4 2 1
19 18 16 13 14 14 13 11 9 7 5 3 2 2 2 1 1 0 0 1 2 1 1 0 0 0 0 0 0 0 0 0 0 1 4 13 22 20 11 7 4 1 0
23 24 20 14 11 10 10 10 9 8 6 4 3 2 2 2 1 1 3 5 5 4 3 1 0 0 0 0 0 0 0 0 1 2 8 21 29 25 16 10 5 2 1
32 31 26 18 12 8 8 9 10 8 7 6 5 6 6 5 5 5 9 12 10 7 5 3 1 1 0 0 0 1 1 1 2 3 13 28 35 30 23 16 10 4 2
39 36 31 24 17 11 11 13 12 11 10 9 10 12 13 12 10 11 16 20 16 10 7 4 3 3 2 2 3 4 2 2 3 4 15 31 37 34 27 21 15 9 5
41 38 33 29 25 21 21 20 16 14 14 14 16 21 22 21 19 19 25 27 22 14 10 7 7 8 7 6 7 9 8 6 5 6 16 29 35 32 27 21 18 14 11
44 42 39 36 33 33 32 28 22 20 21 22 25 30 31 29 27 27 31 33 29 22 16 14 14 13 11 10 11 13 13 10 7 10 19 28 30 28 23 20 18 17 16
48 49 48 43 39 40 40 35 30 29 29 30 33 36 35 33 32 32 34 35 33 29 22 20 19 16 14 13 13 13 12 11 12 16 24 28 27 25 22 21 20 17 16
52 53 51 46 42 43 44 42 38 34 33 35 37 37 35 33 33 34 33 33 33 30 25 22 21 18 15 13 12 12 11 11 15 20 25 27 27 26 25 22 20 17 15
55 54 51 46 44 46 47 45 40 36 35 36 37 36 33 30 29 29 28 28 29 27 24 23 23 21 15 11 12 13 14 15 17 21 23 25 26 26 26 25 22 20 17
58 57 52 47 46 46 45 43 41 38 37 37 36 34 29 24 20 20 21 23 24 22 21 21 22 21 15 11 12 14 15 18 20 21 21 23 24 24 24 24 24 22 19
61 59 54 49 46 43 41 42 41 40 38 35 33 30 24 19 16 14 16 19 19 18 17 16 17 17 15 11 10 10 12 15 18 18 19 20 23 22 19 18 20 19 18
60 59 55 50 46 42 39 39 39 38 35 32 29 25 19 16 14 12 12 14 16 15 14 12 11 12 12 11 7 6 7 9 11 14 16 18 19 17 14 13 14 14 14
58 57 54 49 46 43 40 38 37 34 29 26 23 20 16 15 12 10 9 10 11 12 12 10 7 8 10 9 7 4 4 5 7 10 13 13 13 12 11 11 11 11 11
54 52 49 45 45 45 41 38 36 31 25 21 18 15 13 11 10 8 8 7 7 9 9 7 5 6 7 7 6 4 3 3 4 7 9 9 9 10 10 10 10 9 8
48 46 42 40 41 42 39 35 32 27 22 19 16 12 10 8 8 8 8 6 5 7 8 6 4 3 3 4 4 4 4 3 2 4 5 6 7 9 9 9 9 8 7
43 41 40 39 37 35 32 29 25 21 18 17 15 11 9 7 5 5 5 5 5 7 8 6 3 1 1 2 2 2 4 3 2 1 2 3 5 7 8 9 8 7 6
40 39 39 38 33 27 24 23 20 16 15 15 12 10 8 5 2 1 2 3 4 6 6 5 4 2 2 2 1 1 2 2 2 1 1 1 2 3 6 7 6 5 5
37 37 37 36 31 24 19 18 16 15 15 13 9 7 6 4 1 0 0 1 3 5 5 5 5 5 4 4 1 0 0 1 1 0 0 0 0 1 4 6 5 4 3

GEFSSE_con_probscp_174.txt.gz
Probability
0 1 4 10 12 10 7 6 4 1 0 1 2 3 3 3 4 5 6 6 4 2 1 1 0 0 0 0 0 0 0 0 0 0 0 0 0 0 0 0 0 0 0
3 5 9 13 16 14 11 8 5 1 0 1 3 3 3 3 3 4 5 5 4 2 2 1 0 0 0 0 0 0 0 1 1 0 0 0 0 0 0 0 0 0 0
9 10 14 20 21 19 14 11 6 2 1 2 3 3 3 3 3 3 3 3 3 2 1 1 0 0 0 0 0 0 1 2 2 1 0 0 0 0 0 0 0 0 0
14 15 20 27 28 22 16 12 7 3 2 2 2 2 2 2 1 1 1 1 1 1 0 0 0 0 0 0 0 1 2 3 3 1 0 0 0 1 1 1 0 0 0
18 20 27 36 35 26 18 13 7 4 3 2 1 1 1 1 0 0 0 0 0 0 0 0 0 0 0 0 0 1 4 5 4 1 0 0 1 2 2 1 1 0 0
22 25 32 41 40 29 21 15 9 6 5 3 1 0 0 0 0 0 0 0 0 0 0 0 0 0 0 0 0 1 4 7 5 2 2 1 1 2 2 1 2 1 0
26 27 32 40 39 30 22 18 14 10 8 5 2 0 0 0 0 0 0 0 0 0 0 0 0 0 0 0 0 0 3 5 4 3 3 2 2 3 3 3 3 2 1
28 26 29 34 33 29 25 21 18 15 12 9 5 2 1 0 0 1 0 0 0 0 0 0 0 0 0 0 0 1 3 4 3 4 4 3 3 5 6 6 5 3 1
25 23 22 24 26 26 24 21 19 17 15 12 9 7 4 1 1 1 0 1 1 1 0 0 0 0 0 0 0 2 5 6 5 5 5 5 6 9 10 9 6 4 2
21 19 17 18 19 20 19 18 17 16 14 13 11 9 6 3 1 1 2 3 3 2 1 1 2 2 1 1 1 2 6 8 7 6 5 6 9 12 13 10 6 4 2
21 18 16 15 15 13 12 13 14 14 12 10 10 9 7 4 3 3 4 5 5 4 3 3 4 4 5 3 2 3 4 5 5 5 6 10 14 15 14 10 6 5 5
23 19 16 16 14 11 8 9 11 11 10 8 7 9 10 7 5 5 6 7 6 5 6 6 5 5 6 5 3 3 4 3 3 3 8 15 18 17 15 12 10 10 11
24 21 18 16 15 11 9 9 10 10 9 6 5 8 11 10 8 7 8 8 7 6 7 8 6 5 5 4 3 2 3 4 3 3 7 15 18 17 15 15 16 17 17
25 22 19 18 16 13 12 12 12 12 10 7 6 7 10 10 8 8 8 8 7 7 8 8 6 4 4 4 3 3 3 3 3 3 4 10 16 16 15 15 16 17 16
27 25 22 20 19 17 17 16 15 14 12 10 9 10 10 10 9 7 7 6 5 6 7 7 6 5 4 4 4 3 2 2 3 3 3 7 13 15 14 13 12 10 9
30 29 28 26 23 22 21 20 19 17 15 13 12 12 12 10 8 6 5 5 3 3 5 5 5 4 3 3 3 3 3 3 3 3 3 6 10 13 13 13 9 7 7
32 33 34 31 29 28 26 25 23 20 16 14 11 11 10 8 5 3 3 3 1 1 2 2 2 2 1 1 1 2 2 2 2 3 3 4 6 9 12 14 13 11 10
35 35 37 35 33 31 29 27 25 21 17 11 8 7 8 6 4 2 1 1 0 0 0 0 0 0 0 0 0 1 1 1 1 1 2 3 4 6 10 14 16 14 12
35 36 37 37 34 30 27 25 23 20 15 8 5 6 7 7 5 3 1 0 0 0 0 0 0 0 0 0 0 0 0 0 0 0 1 2 3 5 7 11 13 13 11
33 33 34 34 32 27 23 20 18 15 11 7 5 6 8 8 7 5 2 1 0 0 0 0 0 0 0 0 0 0 0 0 0 0 0 1 2 2 3 5 8 9 9
29 28 28 28 26 22 17 14 12 10 8 6 5 5 6 7 6 4 3 1 0 0 0 0 0 0 0 0 0 0 0 0 0 0 0 0 0 0 0 2 4 6 7
28 26 24 23 21 16 12 11 10 8 7 5 4 3 4 4 3 3 2 1 0 0 0 0 0 0 0 0 0 0 0 0 0 0 0 0 0 0 0 1 3 4 6
28 25 22 18 14 11 11 11 10 8 6 4 3 3 3 2 1 1 1 0 0 0 0 0 0 0 0 0 0 0 0 0 0 0 0 0 0 0 0 1 2 3 4
27 24 20 15 10 9 10 11 10 7 5 4 3 3 1 1 0 0 0 0 0 0 0 0 0 0 0 0 0 0 0 0 0 0 0 0 0 0 0 0 1 1 2
25 23 18 14 10 8 9 11 9 6 3 2 2 2 1 0 0 0 0 0 0 0 0 0 0 0 0 0 0 0 0 0 0 0 0 0 0 0 0 0 0 0 1
23 21 17 14 11 9 9 10 9 5 2 1 1 1 0 0 0 0 0 0 0 0 0 0 0 0 0 0 0 0 0 0 0 0 0 0 0 0 0 0 0 0 0